Time,TemperatureF,DewpointF,PressureIn,WindDirection,WindDirectionDegrees,WindSpeedMPH,WindSpeedGustMPH,Humidity,HourlyPrecipIn,Conditions,Clouds,dailyrainin,SoftwareType,DateUTC
2013-08-02 00:00:00,63.3,57.0,29.91,NW,325,0.0,1.0,80,0.00,,---,0.00,VWS V14.00,2013-08-02 04:00:00,
2013-08-02 00:01:00,63.3,57.0,29.91,NW,325,0.0,0.0,80,0.00,,---,0.00,VWS V14.00,2013-08-02 04:01:00,
2013-08-02 00:02:00,63.3,56.7,29.90,NW,325,0.0,0.0,79,0.00,,---,0.00,VWS V14.00,2013-08-02 04:02:00,
2013-08-02 00:03:00,63.3,56.7,29.90,NW,325,0.0,0.0,79,0.00,,---,0.00,VWS V14.00,2013-08-02 04:03:00,
2013-08-02 00:04:00,63.3,57.0,29.90,NW,325,0.0,0.0,80,0.00,,---,0.00,VWS V14.00,2013-08-02 04:04:00,
2013-08-02 00:07:00,63.3,57.0,29.91,NW,325,0.0,0.0,80,0.00,,---,0.00,VWS V14.00,2013-08-02 04:07:00,
2013-08-02 00:08:00,63.3,57.0,29.91,NW,325,0.0,0.0,80,0.00,,---,0.00,VWS V14.00,2013-08-02 04:08:00,
2013-08-02 00:09:00,63.2,56.9,29.91,NW,325,0.0,0.0,80,0.00,,---,0.00,VWS V14.00,2013-08-02 04:09:00,
2013-08-02 00:10:00,63.2,56.9,29.91,NW,325,0.0,0.0,80,0.00,,---,0.00,VWS V14.00,2013-08-02 04:10:00,
2013-08-02 00:13:00,63.0,56.7,29.90,NW,325,0.0,0.0,80,0.00,,---,0.00,VWS V14.00,2013-08-02 04:13:00,
2013-08-02 00:14:00,63.0,57.1,29.90,NW,325,0.0,0.0,81,0.00,,---,0.00,VWS V14.00,2013-08-02 04:14:00,
2013-08-02 00:15:00,63.0,57.1,29.90,NW,325,0.0,0.0,81,0.00,,---,0.00,VWS V14.00,2013-08-02 04:15:00,
2013-08-02 00:16:00,62.9,57.0,29.90,NW,325,0.0,0.0,81,0.00,,---,0.00,VWS V14.00,2013-08-02 04:16:00,
2013-08-02 00:17:00,62.9,56.6,29.90,NW,325,0.0,0.0,80,0.00,,---,0.00,VWS V14.00,2013-08-02 04:17:00,
2013-08-02 00:20:00,62.8,56.9,29.90,NW,325,0.0,0.0,81,0.00,,---,0.00,VWS V14.00,2013-08-02 04:20:00,
2013-08-02 00:21:00,62.8,56.9,29.90,NW,325,0.0,0.0,81,0.00,,---,0.00,VWS V14.00,2013-08-02 04:21:00,
2013-08-02 00:23:00,62.7,56.8,29.90,NW,325,0.0,0.0,81,0.00,,---,0.00,VWS V14.00,2013-08-02 04:23:00,
2013-08-02 00:24:00,62.7,56.8,29.90,NW,325,0.0,0.0,81,0.00,,---,0.00,VWS V14.00,2013-08-02 04:24:00,
2013-08-02 00:27:00,62.6,57.0,29.90,NW,325,0.0,0.0,82,0.00,,---,0.00,VWS V14.00,2013-08-02 04:27:00,
2013-08-02 00:28:00,62.5,56.9,29.90,NW,325,0.0,0.0,82,0.00,,---,0.00,VWS V14.00,2013-08-02 04:28:00,
2013-08-02 00:29:00,62.5,56.6,29.90,NW,325,0.0,0.0,81,0.00,,---,0.00,VWS V14.00,2013-08-02 04:29:00,
2013-08-02 00:30:00,62.5,56.6,29.90,NW,325,0.0,0.0,81,0.00,,---,0.00,VWS V14.00,2013-08-02 04:30:00,
2013-08-02 00:33:00,62.5,56.6,29.90,NW,325,0.0,1.0,81,0.00,,---,0.00,VWS V14.00,2013-08-02 04:33:00,
2013-08-02 00:35:00,62.6,56.7,29.90,NW,325,0.0,1.0,81,0.00,,---,0.00,VWS V14.00,2013-08-02 04:35:00,
2013-08-02 00:37:00,62.6,56.3,29.90,NW,325,0.0,1.0,80,0.00,,---,0.00,VWS V14.00,2013-08-02 04:37:00,
2013-08-02 00:40:00,62.6,56.3,29.90,NW,325,0.0,1.0,80,0.00,,---,0.00,VWS V14.00,2013-08-02 04:40:00,
2013-08-02 00:41:00,62.6,56.3,29.90,NW,325,0.0,1.0,80,0.00,,---,0.00,VWS V14.00,2013-08-02 04:41:00,
2013-08-02 00:42:00,62.7,56.5,29.90,NW,325,0.0,1.0,80,0.00,,---,0.00,VWS V14.00,2013-08-02 04:42:00,
2013-08-02 00:44:00,62.8,56.5,29.90,NW,325,0.0,1.0,80,0.00,,---,0.00,VWS V14.00,2013-08-02 04:44:00,
2013-08-02 00:46:00,62.9,56.6,29.90,NW,325,0.0,1.0,80,0.00,,---,0.00,VWS V14.00,2013-08-02 04:46:00,
2013-08-02 00:49:00,63.0,56.7,29.90,NW,325,0.0,1.0,80,0.00,,---,0.00,VWS V14.00,2013-08-02 04:49:00,
2013-08-02 00:50:00,63.0,56.7,29.90,NW,325,0.0,1.0,80,0.00,,---,0.00,VWS V14.00,2013-08-02 04:50:00,
2013-08-02 00:52:00,63.1,56.8,29.90,NW,325,0.0,1.0,80,0.00,,---,0.00,VWS V14.00,2013-08-02 04:52:00,
2013-08-02 00:53:00,63.1,56.8,29.90,NW,325,0.0,1.0,80,0.00,,---,0.00,VWS V14.00,2013-08-02 04:53:00,
2013-08-02 00:55:00,63.1,56.8,29.90,NW,325,0.0,1.0,80,0.00,,---,0.00,VWS V14.00,2013-08-02 04:55:00,
2013-08-02 00:57:00,63.1,56.8,29.90,NW,325,0.0,1.0,80,0.00,,---,0.00,VWS V14.00,2013-08-02 04:57:00,
2013-08-02 00:58:00,63.1,56.8,29.90,NW,325,0.0,1.0,80,0.00,,---,0.00,VWS V14.00,2013-08-02 04:58:00,
2013-08-02 01:00:00,63.1,56.5,29.90,NW,325,0.0,1.0,79,0.00,,---,0.00,VWS V14.00,2013-08-02 05:00:00,
2013-08-02 01:02:00,63.1,56.5,29.90,NW,325,0.0,0.0,79,0.00,,---,0.00,VWS V14.00,2013-08-02 05:02:00,
2013-08-02 01:03:00,63.1,56.5,29.90,NW,325,0.0,0.0,79,0.00,,---,0.00,VWS V14.00,2013-08-02 05:03:00,
2013-08-02 01:06:00,63.1,56.5,29.90,NW,325,0.0,0.0,79,0.00,,---,0.00,VWS V14.00,2013-08-02 05:06:00,
2013-08-02 01:07:00,63.1,56.5,29.90,NW,325,0.0,0.0,79,0.00,,---,0.00,VWS V14.00,2013-08-02 05:07:00,
2013-08-02 01:08:00,63.1,56.5,29.90,NW,325,0.0,0.0,79,0.00,,---,0.00,VWS V14.00,2013-08-02 05:08:00,
2013-08-02 01:09:00,63.1,56.5,29.90,NW,325,0.0,0.0,79,0.00,,---,0.00,VWS V14.00,2013-08-02 05:09:00,
2013-08-02 01:13:00,63.1,56.5,29.90,NW,325,0.0,0.0,79,0.00,,---,0.00,VWS V14.00,2013-08-02 05:13:00,
2013-08-02 01:15:00,63.1,56.5,29.90,NW,325,0.0,0.0,79,0.00,,---,0.00,VWS V14.00,2013-08-02 05:15:00,
2013-08-02 01:16:00,63.1,56.5,29.90,NW,325,0.0,0.0,79,0.00,,---,0.00,VWS V14.00,2013-08-02 05:16:00,
2013-08-02 01:20:00,63.0,56.4,29.90,NW,325,0.0,0.0,79,0.00,,---,0.00,VWS V14.00,2013-08-02 05:20:00,
2013-08-02 01:22:00,63.0,56.4,29.90,NW,325,0.0,0.0,79,0.00,,---,0.00,VWS V14.00,2013-08-02 05:22:00,
2013-08-02 01:26:00,62.9,56.6,29.89,NW,325,0.0,0.0,80,0.00,,---,0.00,VWS V14.00,2013-08-02 05:26:00,
2013-08-02 01:27:00,62.8,56.5,29.89,NW,325,0.0,0.0,80,0.00,,---,0.00,VWS V14.00,2013-08-02 05:27:00,
2013-08-02 01:28:00,62.8,56.5,29.89,NW,325,0.0,0.0,80,0.00,,---,0.00,VWS V14.00,2013-08-02 05:28:00,
2013-08-02 01:29:00,62.8,56.5,29.89,NW,325,0.0,0.0,80,0.00,,---,0.00,VWS V14.00,2013-08-02 05:29:00,
2013-08-02 01:31:00,62.8,56.5,29.89,NW,325,0.0,0.0,80,0.00,,---,0.00,VWS V14.00,2013-08-02 05:31:00,
2013-08-02 01:32:00,62.7,56.8,29.89,NW,325,0.0,0.0,81,0.00,,---,0.00,VWS V14.00,2013-08-02 05:32:00,
2013-08-02 01:33:00,62.7,56.8,29.89,NW,325,0.0,0.0,81,0.00,,---,0.00,VWS V14.00,2013-08-02 05:33:00,
2013-08-02 01:34:00,62.7,56.8,29.89,NW,325,0.0,0.0,81,0.00,,---,0.00,VWS V14.00,2013-08-02 05:34:00,
2013-08-02 01:36:00,62.6,56.7,29.89,NW,325,0.0,0.0,81,0.00,,---,0.00,VWS V14.00,2013-08-02 05:36:00,
2013-08-02 01:38:00,62.4,56.5,29.89,NW,325,0.0,0.0,81,0.00,,---,0.00,VWS V14.00,2013-08-02 05:38:00,
2013-08-02 01:40:00,62.3,56.4,29.89,NW,325,0.0,0.0,81,0.00,,---,0.00,VWS V14.00,2013-08-02 05:40:00,
2013-08-02 01:41:00,62.3,56.4,29.89,NW,325,0.0,0.0,81,0.00,,---,0.00,VWS V14.00,2013-08-02 05:41:00,
2013-08-02 01:44:00,62.1,56.2,29.89,NW,325,0.0,0.0,81,0.00,,---,0.00,VWS V14.00,2013-08-02 05:44:00,
2013-08-02 01:46:00,62.0,56.5,29.89,NW,325,0.0,0.0,82,0.00,,---,0.00,VWS V14.00,2013-08-02 05:46:00,
2013-08-02 01:47:00,62.0,56.8,29.89,NW,325,0.0,0.0,83,0.00,,---,0.00,VWS V14.00,2013-08-02 05:47:00,
2013-08-02 01:48:00,62.0,56.8,29.88,NW,325,0.0,0.0,83,0.00,,---,0.00,VWS V14.00,2013-08-02 05:48:00,
2013-08-02 01:50:00,61.9,56.7,29.88,NW,325,0.0,0.0,83,0.00,,---,0.00,VWS V14.00,2013-08-02 05:50:00,
2013-08-02 01:52:00,61.8,56.9,29.88,NW,325,0.0,0.0,84,0.00,,---,0.00,VWS V14.00,2013-08-02 05:52:00,
2013-08-02 01:54:00,61.7,56.8,29.88,NW,325,0.0,0.0,84,0.00,,---,0.00,VWS V14.00,2013-08-02 05:54:00,
2013-08-02 01:55:00,61.6,56.7,29.88,NW,325,0.0,0.0,84,0.00,,---,0.00,VWS V14.00,2013-08-02 05:55:00,
2013-08-02 01:58:00,61.5,56.6,29.88,NW,325,0.0,0.0,84,0.00,,---,0.00,VWS V14.00,2013-08-02 05:58:00,
2013-08-02 01:59:00,61.4,56.5,29.88,NW,325,0.0,0.0,84,0.00,,---,0.00,VWS V14.00,2013-08-02 05:59:00,
2013-08-02 02:00:00,61.4,56.5,29.88,NW,325,0.0,0.0,84,0.00,,---,0.00,VWS V14.00,2013-08-02 06:00:00,
2013-08-02 02:01:00,61.3,56.4,29.88,NW,325,0.0,0.0,84,0.00,,---,0.00,VWS V14.00,2013-08-02 06:01:00,
2013-08-02 02:02:00,61.2,56.7,29.88,NW,325,0.0,0.0,85,0.00,,---,0.00,VWS V14.00,2013-08-02 06:02:00,
2013-08-02 02:04:00,61.1,56.6,29.88,NW,325,0.0,0.0,85,0.00,,---,0.00,VWS V14.00,2013-08-02 06:04:00,
2013-08-02 02:06:00,61.0,56.5,29.88,NW,325,0.0,0.0,85,0.00,,---,0.00,VWS V14.00,2013-08-02 06:06:00,
2013-08-02 02:07:00,60.9,56.4,29.88,NW,325,0.0,0.0,85,0.00,,---,0.00,VWS V14.00,2013-08-02 06:07:00,
2013-08-02 02:08:00,60.9,56.4,29.88,NW,325,0.0,0.0,85,0.00,,---,0.00,VWS V14.00,2013-08-02 06:08:00,
2013-08-02 02:10:00,60.8,56.3,29.88,NW,325,0.0,0.0,85,0.00,,---,0.00,VWS V14.00,2013-08-02 06:10:00,
2013-08-02 02:12:00,60.7,56.2,29.88,NW,325,0.0,0.0,85,0.00,,---,0.00,VWS V14.00,2013-08-02 06:12:00,
2013-08-02 02:13:00,60.6,56.1,29.88,NW,325,0.0,0.0,85,0.00,,---,0.00,VWS V14.00,2013-08-02 06:13:00,
2013-08-02 02:14:00,60.5,56.3,29.88,NW,325,0.0,0.0,86,0.00,,---,0.00,VWS V14.00,2013-08-02 06:14:00,
2013-08-02 02:15:00,60.5,56.3,29.88,NW,325,0.0,0.0,86,0.00,,---,0.00,VWS V14.00,2013-08-02 06:15:00,
2013-08-02 02:16:00,60.5,56.3,29.88,NW,325,0.0,0.0,86,0.00,,---,0.00,VWS V14.00,2013-08-02 06:16:00,
2013-08-02 02:17:00,60.5,56.3,29.88,NW,325,0.0,0.0,86,0.00,,---,0.00,VWS V14.00,2013-08-02 06:17:00,
2013-08-02 02:19:00,60.4,56.2,29.88,NW,325,0.0,0.0,86,0.00,,---,0.00,VWS V14.00,2013-08-02 06:19:00,
2013-08-02 02:21:00,60.4,56.2,29.88,NW,325,0.0,0.0,86,0.00,,---,0.00,VWS V14.00,2013-08-02 06:21:00,
2013-08-02 02:22:00,60.4,56.2,29.88,NW,325,0.0,0.0,86,0.00,,---,0.00,VWS V14.00,2013-08-02 06:22:00,
2013-08-02 02:23:00,60.4,56.5,29.88,NW,325,0.0,0.0,87,0.00,,---,0.00,VWS V14.00,2013-08-02 06:23:00,
2013-08-02 02:26:00,60.3,56.4,29.87,NW,325,0.0,0.0,87,0.00,,---,0.00,VWS V14.00,2013-08-02 06:26:00,
2013-08-02 02:27:00,60.3,56.4,29.87,NW,325,0.0,0.0,87,0.00,,---,0.00,VWS V14.00,2013-08-02 06:27:00,
2013-08-02 02:28:00,60.3,56.4,29.87,NW,325,0.0,0.0,87,0.00,,---,0.00,VWS V14.00,2013-08-02 06:28:00,
2013-08-02 02:30:00,60.3,56.4,29.88,NW,325,0.0,0.0,87,0.00,,---,0.00,VWS V14.00,2013-08-02 06:30:00,
2013-08-02 02:32:00,60.2,56.3,29.87,NW,325,0.0,0.0,87,0.00,,---,0.00,VWS V14.00,2013-08-02 06:32:00,
2013-08-02 02:34:00,60.2,56.3,29.87,NW,325,0.0,0.0,87,0.00,,---,0.00,VWS V14.00,2013-08-02 06:34:00,
2013-08-02 02:37:00,60.2,56.3,29.88,NW,325,0.0,1.0,87,0.00,,---,0.00,VWS V14.00,2013-08-02 06:37:00,
2013-08-02 02:38:00,60.2,56.3,29.87,NW,325,0.0,1.0,87,0.00,,---,0.00,VWS V14.00,2013-08-02 06:38:00,
2013-08-02 02:39:00,60.2,56.3,29.87,NW,325,0.0,1.0,87,0.00,,---,0.00,VWS V14.00,2013-08-02 06:39:00,
2013-08-02 02:40:00,60.3,56.4,29.87,NW,325,0.0,1.0,87,0.00,,---,0.00,VWS V14.00,2013-08-02 06:40:00,
2013-08-02 02:42:00,60.3,56.7,29.87,NW,325,0.0,1.0,88,0.00,,---,0.00,VWS V14.00,2013-08-02 06:42:00,
2013-08-02 02:43:00,60.3,56.7,29.87,NW,325,0.0,1.0,88,0.00,,---,0.00,VWS V14.00,2013-08-02 06:43:00,
2013-08-02 02:44:00,60.4,56.8,29.87,NW,325,0.0,1.0,88,0.00,,---,0.00,VWS V14.00,2013-08-02 06:44:00,
2013-08-02 02:45:00,60.4,56.8,29.87,NW,325,0.0,1.0,88,0.00,,---,0.00,VWS V14.00,2013-08-02 06:45:00,
2013-08-02 02:46:00,60.4,56.8,29.87,NW,325,0.0,1.0,88,0.00,,---,0.00,VWS V14.00,2013-08-02 06:46:00,
2013-08-02 02:49:00,60.4,56.5,29.87,NW,325,0.0,1.0,87,0.00,,---,0.00,VWS V14.00,2013-08-02 06:49:00,
2013-08-02 02:50:00,60.4,56.5,29.87,NW,325,0.0,1.0,87,0.00,,---,0.00,VWS V14.00,2013-08-02 06:50:00,
2013-08-02 02:51:00,60.4,56.5,29.87,NW,325,0.0,1.0,87,0.00,,---,0.00,VWS V14.00,2013-08-02 06:51:00,
2013-08-02 02:52:00,60.4,56.5,29.87,NW,325,0.0,1.0,87,0.00,,---,0.00,VWS V14.00,2013-08-02 06:52:00,
2013-08-02 02:53:00,60.5,56.6,29.87,NW,325,0.0,1.0,87,0.00,,---,0.00,VWS V14.00,2013-08-02 06:53:00,
2013-08-02 02:55:00,60.5,56.6,29.87,NW,325,0.0,1.0,87,0.00,,---,0.00,VWS V14.00,2013-08-02 06:55:00,
2013-08-02 02:57:00,60.5,56.6,29.87,NW,325,0.0,1.0,87,0.00,,---,0.00,VWS V14.00,2013-08-02 06:57:00,
2013-08-02 02:58:00,60.5,56.6,29.87,NW,325,0.0,1.0,87,0.00,,---,0.00,VWS V14.00,2013-08-02 06:58:00,
2013-08-02 02:59:00,60.5,56.6,29.87,NW,325,0.0,1.0,87,0.00,,---,0.00,VWS V14.00,2013-08-02 06:59:00,
2013-08-02 03:00:00,60.5,56.6,29.87,NW,325,0.0,1.0,87,0.00,,---,0.00,VWS V14.00,2013-08-02 07:00:00,
2013-08-02 03:03:00,60.4,56.5,29.87,NW,325,0.0,0.0,87,0.00,,---,0.00,VWS V14.00,2013-08-02 07:03:00,
2013-08-02 03:04:00,60.4,56.5,29.86,NW,325,0.0,0.0,87,0.00,,---,0.00,VWS V14.00,2013-08-02 07:04:00,
2013-08-02 03:05:00,60.4,56.5,29.86,NW,325,0.0,0.0,87,0.00,,---,0.00,VWS V14.00,2013-08-02 07:05:00,
2013-08-02 03:06:00,60.3,56.4,29.86,NW,325,0.0,0.0,87,0.00,,---,0.00,VWS V14.00,2013-08-02 07:06:00,
2013-08-02 03:08:00,60.1,56.2,29.86,NW,325,0.0,0.0,87,0.00,,---,0.00,VWS V14.00,2013-08-02 07:08:00,
2013-08-02 03:10:00,60.1,56.5,29.86,NW,325,0.0,0.0,88,0.00,,---,0.00,VWS V14.00,2013-08-02 07:10:00,
2013-08-02 03:12:00,59.9,56.3,29.86,NW,325,0.0,0.0,88,0.00,,---,0.00,VWS V14.00,2013-08-02 07:12:00,
2013-08-02 03:14:00,59.8,55.9,29.86,NW,325,0.0,0.0,87,0.00,,---,0.00,VWS V14.00,2013-08-02 07:14:00,
2013-08-02 03:16:00,59.6,56.0,29.86,NW,325,0.0,1.0,88,0.00,,---,0.00,VWS V14.00,2013-08-02 07:16:00,
2013-08-02 03:17:00,59.6,56.0,29.86,NW,325,0.0,1.0,88,0.00,,---,0.00,VWS V14.00,2013-08-02 07:17:00,
2013-08-02 03:19:00,59.7,56.2,29.86,NW,325,0.0,1.0,88,0.00,,---,0.00,VWS V14.00,2013-08-02 07:19:00,
2013-08-02 03:21:00,59.7,56.2,29.86,NW,325,0.0,1.0,88,0.00,,---,0.00,VWS V14.00,2013-08-02 07:21:00,
2013-08-02 03:22:00,59.7,55.8,29.86,NW,325,0.0,1.0,87,0.00,,---,0.00,VWS V14.00,2013-08-02 07:22:00,
2013-08-02 03:23:00,59.8,55.9,29.86,NW,325,0.0,1.0,87,0.00,,---,0.00,VWS V14.00,2013-08-02 07:23:00,
2013-08-02 03:24:00,59.8,55.9,29.86,NW,325,0.0,1.0,87,0.00,,---,0.00,VWS V14.00,2013-08-02 07:24:00,
2013-08-02 03:28:00,59.9,56.0,29.86,NW,325,0.0,1.0,87,0.00,,---,0.00,VWS V14.00,2013-08-02 07:28:00,
2013-08-02 03:29:00,59.9,56.0,29.87,NW,325,0.0,1.0,87,0.00,,---,0.00,VWS V14.00,2013-08-02 07:29:00,
2013-08-02 03:30:00,59.9,56.0,29.86,NW,325,0.0,1.0,87,0.00,,---,0.00,VWS V14.00,2013-08-02 07:30:00,
2013-08-02 03:33:00,59.9,56.0,29.86,NW,325,0.0,0.0,87,0.00,,---,0.00,VWS V14.00,2013-08-02 07:33:00,
2013-08-02 03:34:00,59.9,56.0,29.86,NW,325,0.0,0.0,87,0.00,,---,0.00,VWS V14.00,2013-08-02 07:34:00,
2013-08-02 03:35:00,59.8,55.9,29.86,NW,325,0.0,0.0,87,0.00,,---,0.00,VWS V14.00,2013-08-02 07:35:00,
2013-08-02 03:40:00,59.6,55.7,29.86,NW,325,0.0,0.0,87,0.00,,---,0.00,VWS V14.00,2013-08-02 07:40:00,
2013-08-02 03:42:00,59.6,55.7,29.86,NW,325,0.0,0.0,87,0.00,,---,0.00,VWS V14.00,2013-08-02 07:42:00,
2013-08-02 03:46:00,59.3,55.4,29.86,NW,325,0.0,0.0,87,0.00,,---,0.00,VWS V14.00,2013-08-02 07:46:00,
2013-08-02 03:47:00,59.3,55.8,29.86,NW,325,0.0,0.0,88,0.00,,---,0.00,VWS V14.00,2013-08-02 07:47:00,
2013-08-02 03:49:00,59.2,55.7,29.86,NW,325,0.0,0.0,88,0.00,,---,0.00,VWS V14.00,2013-08-02 07:49:00,
2013-08-02 03:51:00,59.3,55.8,29.87,NW,325,0.0,0.0,88,0.00,,---,0.00,VWS V14.00,2013-08-02 07:51:00,
2013-08-02 03:53:00,59.4,55.8,29.86,NW,325,0.0,0.0,88,0.00,,---,0.00,VWS V14.00,2013-08-02 07:53:00,
2013-08-02 03:56:00,59.5,56.0,29.87,NW,325,0.0,0.0,88,0.00,,---,0.00,VWS V14.00,2013-08-02 07:56:00,
2013-08-02 03:57:00,59.5,56.0,29.86,NW,325,0.0,0.0,88,0.00,,---,0.00,VWS V14.00,2013-08-02 07:57:00,
2013-08-02 03:58:00,59.4,55.8,29.86,NW,325,0.0,0.0,88,0.00,,---,0.00,VWS V14.00,2013-08-02 07:58:00,
2013-08-02 04:03:00,59.3,55.8,29.86,NW,325,0.0,0.0,88,0.00,,---,0.00,VWS V14.00,2013-08-02 08:03:00,
2013-08-02 04:04:00,59.3,55.8,29.86,NW,325,0.0,0.0,88,0.00,,---,0.00,VWS V14.00,2013-08-02 08:04:00,
2013-08-02 04:08:00,59.1,55.5,29.86,NW,325,0.0,0.0,88,0.00,,---,0.00,VWS V14.00,2013-08-02 08:08:00,
2013-08-02 04:09:00,59.0,55.5,29.86,NW,325,0.0,0.0,88,0.00,,---,0.00,VWS V14.00,2013-08-02 08:09:00,
2013-08-02 04:10:00,59.0,55.5,29.86,NW,325,0.0,0.0,88,0.00,,---,0.00,VWS V14.00,2013-08-02 08:10:00,
2013-08-02 04:11:00,59.0,55.5,29.86,NW,325,0.0,0.0,88,0.00,,---,0.00,VWS V14.00,2013-08-02 08:11:00,
2013-08-02 04:13:00,59.1,55.5,29.86,NW,325,0.0,0.0,88,0.00,,---,0.00,VWS V14.00,2013-08-02 08:13:00,
2013-08-02 04:15:00,59.2,55.7,29.86,NW,325,0.0,1.0,88,0.00,,---,0.00,VWS V14.00,2013-08-02 08:15:00,
2013-08-02 04:16:00,59.3,55.8,29.86,NW,325,0.0,1.0,88,0.00,,---,0.00,VWS V14.00,2013-08-02 08:16:00,
2013-08-02 04:17:00,59.3,55.8,29.86,NW,312,3.0,4.0,88,0.00,,---,0.00,VWS V14.00,2013-08-02 08:17:00,
2013-08-02 04:19:00,59.5,56.3,29.86,WNW,297,0.0,4.0,89,0.00,,---,0.00,VWS V14.00,2013-08-02 08:19:00,
2013-08-02 04:21:00,59.5,56.0,29.86,WNW,296,0.0,4.0,88,0.00,,---,0.00,VWS V14.00,2013-08-02 08:21:00,
2013-08-02 04:22:00,59.5,56.0,29.86,WNW,296,0.0,4.0,88,0.00,,---,0.00,VWS V14.00,2013-08-02 08:22:00,
2013-08-02 04:23:00,59.4,55.8,29.86,WNW,296,0.0,4.0,88,0.00,,---,0.00,VWS V14.00,2013-08-02 08:23:00,
2013-08-02 04:24:00,59.5,56.0,29.86,WNW,296,0.0,4.0,88,0.00,,---,0.00,VWS V14.00,2013-08-02 08:24:00,
2013-08-02 04:25:00,59.5,56.0,29.86,WNW,296,0.0,4.0,88,0.00,,---,0.00,VWS V14.00,2013-08-02 08:25:00,
2013-08-02 04:27:00,59.5,56.0,29.86,WNW,296,0.0,4.0,88,0.00,,---,0.00,VWS V14.00,2013-08-02 08:27:00,
2013-08-02 04:28:00,59.5,56.0,29.86,WNW,296,0.0,4.0,88,0.00,,---,0.00,VWS V14.00,2013-08-02 08:28:00,
2013-08-02 04:30:00,59.5,56.0,29.86,WNW,296,0.0,4.0,88,0.00,,---,0.00,VWS V14.00,2013-08-02 08:30:00,
2013-08-02 04:33:00,59.4,55.8,29.86,WNW,296,0.0,0.0,88,0.00,,---,0.00,VWS V14.00,2013-08-02 08:33:00,
2013-08-02 04:34:00,59.5,56.0,29.86,WNW,296,0.0,0.0,88,0.00,,---,0.00,VWS V14.00,2013-08-02 08:34:00,
2013-08-02 04:35:00,59.6,56.0,29.86,WNW,296,0.0,0.0,88,0.00,,---,0.00,VWS V14.00,2013-08-02 08:35:00,
2013-08-02 04:36:00,59.6,56.0,29.86,WNW,296,0.0,0.0,88,0.00,,---,0.00,VWS V14.00,2013-08-02 08:36:00,
2013-08-02 04:37:00,59.7,56.2,29.86,WNW,296,0.0,0.0,88,0.00,,---,0.00,VWS V14.00,2013-08-02 08:37:00,
2013-08-02 04:39:00,60.0,56.4,29.86,WNW,291,0.0,1.0,88,0.00,,---,0.00,VWS V14.00,2013-08-02 08:39:00,
2013-08-02 04:40:00,60.0,56.4,29.86,WNW,288,0.0,1.0,88,0.00,,---,0.00,VWS V14.00,2013-08-02 08:40:00,
2013-08-02 04:44:00,60.2,56.3,29.86,WNW,288,0.0,1.0,87,0.00,,---,0.00,VWS V14.00,2013-08-02 08:44:00,
2013-08-02 04:45:00,60.2,56.3,29.86,WNW,288,0.0,1.0,87,0.00,,---,0.00,VWS V14.00,2013-08-02 08:45:00,
2013-08-02 04:50:00,60.2,56.0,29.86,WNW,287,0.0,1.0,86,0.00,,---,0.00,VWS V14.00,2013-08-02 08:50:00,
2013-08-02 04:51:00,60.2,56.3,29.86,WNW,287,0.0,1.0,87,0.00,,---,0.00,VWS V14.00,2013-08-02 08:51:00,
2013-08-02 04:52:00,60.2,56.3,29.86,WNW,287,0.0,1.0,87,0.00,,---,0.00,VWS V14.00,2013-08-02 08:52:00,
2013-08-02 04:53:00,60.3,56.1,29.86,WNW,287,0.0,1.0,86,0.00,,---,0.00,VWS V14.00,2013-08-02 08:53:00,
2013-08-02 04:54:00,60.3,56.1,29.86,WNW,287,0.0,1.0,86,0.00,,---,0.00,VWS V14.00,2013-08-02 08:54:00,
2013-08-02 04:56:00,60.5,56.6,29.86,West,271,0.0,3.0,87,0.00,,---,0.00,VWS V14.00,2013-08-02 08:56:00,
2013-08-02 04:58:00,60.5,56.6,29.86,West,269,3.0,3.0,87,0.00,,---,0.00,VWS V14.00,2013-08-02 08:58:00,
2013-08-02 04:59:00,60.5,56.6,29.86,West,268,0.0,3.0,87,0.00,,---,0.00,VWS V14.00,2013-08-02 08:59:00,
2013-08-02 05:00:00,60.5,56.6,29.86,West,267,0.0,3.0,87,0.00,,---,0.00,VWS V14.00,2013-08-02 09:00:00,
2013-08-02 05:01:00,60.5,56.6,29.87,West,267,0.0,0.0,87,0.00,,---,0.00,VWS V14.00,2013-08-02 09:01:00,
2013-08-02 05:03:00,60.5,56.6,29.87,West,266,0.0,0.0,87,0.00,,---,0.00,VWS V14.00,2013-08-02 09:03:00,
2013-08-02 05:04:00,60.5,56.6,29.87,West,266,0.0,0.0,87,0.00,,---,0.00,VWS V14.00,2013-08-02 09:04:00,
2013-08-02 05:07:00,60.4,56.2,29.88,West,266,0.0,0.0,86,0.00,,---,0.00,VWS V14.00,2013-08-02 09:07:00,
2013-08-02 05:08:00,60.4,56.2,29.88,West,266,0.0,0.0,86,0.00,,---,0.00,VWS V14.00,2013-08-02 09:08:00,
2013-08-02 05:10:00,60.2,56.0,29.87,West,266,0.0,0.0,86,0.00,,---,0.00,VWS V14.00,2013-08-02 09:10:00,
2013-08-02 05:11:00,60.2,56.0,29.87,West,265,0.0,0.0,86,0.00,,---,0.00,VWS V14.00,2013-08-02 09:11:00,
2013-08-02 05:13:00,60.1,55.9,29.87,West,266,0.0,0.0,86,0.00,,---,0.00,VWS V14.00,2013-08-02 09:13:00,
2013-08-02 05:14:00,59.9,55.7,29.87,West,265,0.0,0.0,86,0.00,,---,0.00,VWS V14.00,2013-08-02 09:14:00,
2013-08-02 05:16:00,59.9,55.7,29.88,West,265,0.0,0.0,86,0.00,,---,0.00,VWS V14.00,2013-08-02 09:16:00,
2013-08-02 05:17:00,59.8,55.6,29.88,West,266,0.0,0.0,86,0.00,,---,0.00,VWS V14.00,2013-08-02 09:17:00,
2013-08-02 05:20:00,59.7,55.8,29.88,West,266,0.0,0.0,87,0.00,,---,0.00,VWS V14.00,2013-08-02 09:20:00,
2013-08-02 05:22:00,59.7,55.8,29.88,West,266,0.0,0.0,87,0.00,,---,0.00,VWS V14.00,2013-08-02 09:22:00,
2013-08-02 05:23:00,59.7,55.8,29.88,West,266,0.0,0.0,87,0.00,,---,0.00,VWS V14.00,2013-08-02 09:23:00,
2013-08-02 05:24:00,59.7,55.8,29.88,West,266,0.0,0.0,87,0.00,,---,0.00,VWS V14.00,2013-08-02 09:24:00,
2013-08-02 05:25:00,59.7,55.8,29.88,West,266,0.0,0.0,87,0.00,,---,0.00,VWS V14.00,2013-08-02 09:25:00,
2013-08-02 05:26:00,59.8,55.9,29.88,West,266,0.0,0.0,87,0.00,,---,0.00,VWS V14.00,2013-08-02 09:26:00,
2013-08-02 05:30:00,59.8,55.9,29.88,West,266,0.0,1.0,87,0.00,,---,0.00,VWS V14.00,2013-08-02 09:30:00,
2013-08-02 05:31:00,59.8,55.9,29.88,West,266,0.0,1.0,87,0.00,,---,0.00,VWS V14.00,2013-08-02 09:31:00,
2013-08-02 05:32:00,59.7,55.8,29.88,West,266,0.0,0.0,87,0.00,,---,0.00,VWS V14.00,2013-08-02 09:32:00,
2013-08-02 05:34:00,59.7,55.8,29.88,West,266,0.0,0.0,87,0.00,,---,0.00,VWS V14.00,2013-08-02 09:34:00,
2013-08-02 05:36:00,59.8,55.9,29.88,West,266,0.0,0.0,87,0.00,,---,0.00,VWS V14.00,2013-08-02 09:36:00,
2013-08-02 05:37:00,59.8,55.9,29.88,West,265,0.0,0.0,87,0.00,,---,0.00,VWS V14.00,2013-08-02 09:37:00,
2013-08-02 05:39:00,59.9,56.0,29.87,West,265,0.0,2.0,87,0.00,,---,0.00,VWS V14.00,2013-08-02 09:39:00,
2013-08-02 05:41:00,59.9,56.0,29.87,West,262,0.0,2.0,87,0.00,,---,0.00,VWS V14.00,2013-08-02 09:41:00,
2013-08-02 05:42:00,59.9,56.0,29.87,West,262,0.0,2.0,87,0.00,,---,0.00,VWS V14.00,2013-08-02 09:42:00,
2013-08-02 05:43:00,59.9,56.0,29.87,West,262,0.0,2.0,87,0.00,,---,0.00,VWS V14.00,2013-08-02 09:43:00,
2013-08-02 05:46:00,59.9,56.0,29.87,West,259,0.0,2.0,87,0.00,,---,0.00,VWS V14.00,2013-08-02 09:46:00,
2013-08-02 05:47:00,59.9,56.0,29.87,WSW,256,0.0,2.0,87,0.00,,---,0.00,VWS V14.00,2013-08-02 09:47:00,
2013-08-02 05:48:00,60.0,56.1,29.87,WSW,254,0.0,2.0,87,0.00,,---,0.00,VWS V14.00,2013-08-02 09:48:00,
2013-08-02 05:49:00,60.0,56.1,29.87,WSW,254,0.0,2.0,87,0.00,,---,0.00,VWS V14.00,2013-08-02 09:49:00,
2013-08-02 05:52:00,60.1,55.9,29.87,WSW,241,0.0,2.0,86,0.00,,---,0.00,VWS V14.00,2013-08-02 09:52:00,
2013-08-02 05:53:00,60.1,55.9,29.87,WSW,241,0.0,2.0,86,0.00,,---,0.00,VWS V14.00,2013-08-02 09:53:00,
2013-08-02 05:54:00,60.1,55.9,29.88,SW,233,2.0,4.0,86,0.00,,---,0.00,VWS V14.00,2013-08-02 09:54:00,
2013-08-02 05:55:00,60.2,56.0,29.88,SW,233,0.0,4.0,86,0.00,,---,0.00,VWS V14.00,2013-08-02 09:55:00,
2013-08-02 05:58:00,60.4,56.5,29.87,SW,232,0.0,4.0,87,0.00,,---,0.00,VWS V14.00,2013-08-02 09:58:00,
2013-08-02 05:59:00,60.5,56.6,29.87,SW,232,0.0,4.0,87,0.00,,---,0.00,VWS V14.00,2013-08-02 09:59:00,
2013-08-02 06:02:00,60.9,56.7,29.87,SW,215,3.0,4.0,86,0.00,,---,0.00,VWS V14.00,2013-08-02 10:02:00,
2013-08-02 06:03:00,61.1,56.9,29.87,SSW,209,0.0,4.0,86,0.00,,---,0.00,VWS V14.00,2013-08-02 10:03:00,
2013-08-02 06:04:00,61.2,57.0,29.87,SSW,209,0.0,4.0,86,0.00,,---,0.00,VWS V14.00,2013-08-02 10:04:00,
2013-08-02 06:05:00,61.3,57.1,29.87,SSW,200,4.0,5.0,86,0.00,,---,0.00,VWS V14.00,2013-08-02 10:05:00,
2013-08-02 06:09:00,61.7,57.2,29.87,South,189,0.0,5.0,85,0.00,,---,0.00,VWS V14.00,2013-08-02 10:09:00,
2013-08-02 06:10:00,61.8,57.2,29.87,South,186,0.0,5.0,85,0.00,,---,0.00,VWS V14.00,2013-08-02 10:10:00,
2013-08-02 06:11:00,61.8,56.9,29.87,South,184,0.0,5.0,84,0.00,,---,0.00,VWS V14.00,2013-08-02 10:11:00,
2013-08-02 06:12:00,61.9,57.0,29.87,South,185,0.0,5.0,84,0.00,,---,0.00,VWS V14.00,2013-08-02 10:12:00,
2013-08-02 06:13:00,61.9,57.0,29.87,South,184,0.0,5.0,84,0.00,,---,0.00,VWS V14.00,2013-08-02 10:13:00,
2013-08-02 06:14:00,62.0,57.1,29.87,South,184,0.0,5.0,84,0.00,,---,0.00,VWS V14.00,2013-08-02 10:14:00,
2013-08-02 06:16:00,62.1,57.2,29.87,South,184,0.0,5.0,84,0.00,,---,0.00,VWS V14.00,2013-08-02 10:16:00,
2013-08-02 06:17:00,62.1,57.2,29.87,South,184,0.0,5.0,84,0.00,,---,0.00,VWS V14.00,2013-08-02 10:17:00,
2013-08-02 06:19:00,62.2,57.3,29.87,South,183,0.0,5.0,84,0.00,,---,0.00,VWS V14.00,2013-08-02 10:19:00,
2013-08-02 06:21:00,62.1,57.2,29.87,South,184,1.0,5.0,84,0.00,,---,0.00,VWS V14.00,2013-08-02 10:21:00,
2013-08-02 06:22:00,62.1,57.2,29.87,South,183,2.0,5.0,84,0.00,,---,0.00,VWS V14.00,2013-08-02 10:22:00,
2013-08-02 06:24:00,62.0,56.8,29.87,South,183,0.0,5.0,83,0.00,,---,0.00,VWS V14.00,2013-08-02 10:24:00,
2013-08-02 06:25:00,61.9,56.7,29.87,South,183,0.0,5.0,83,0.00,,---,0.00,VWS V14.00,2013-08-02 10:25:00,
2013-08-02 06:27:00,61.8,56.9,29.87,South,183,0.0,5.0,84,0.00,,---,0.00,VWS V14.00,2013-08-02 10:27:00,
2013-08-02 06:30:00,61.7,56.8,29.87,South,183,0.0,5.0,84,0.00,,---,0.00,VWS V14.00,2013-08-02 10:30:00,
2013-08-02 06:32:00,61.7,56.8,29.87,South,183,0.0,1.0,84,0.00,,---,0.00,VWS V14.00,2013-08-02 10:32:00,
2013-08-02 06:33:00,61.7,56.8,29.87,South,183,0.0,1.0,84,0.00,,---,0.00,VWS V14.00,2013-08-02 10:33:00,
2013-08-02 06:35:00,61.7,57.2,29.87,South,183,0.0,1.0,85,0.00,,---,0.00,VWS V14.00,2013-08-02 10:35:00,
2013-08-02 06:38:00,61.9,57.0,29.87,South,183,0.0,1.0,84,0.00,,---,0.00,VWS V14.00,2013-08-02 10:38:00,
2013-08-02 06:39:00,61.9,57.0,29.87,South,183,0.0,1.0,84,0.00,,---,0.00,VWS V14.00,2013-08-02 10:39:00,
2013-08-02 06:40:00,61.9,57.0,29.87,South,183,0.0,1.0,84,0.00,,---,0.00,VWS V14.00,2013-08-02 10:40:00,
2013-08-02 06:41:00,62.0,57.1,29.87,South,183,0.0,1.0,84,0.00,,---,0.00,VWS V14.00,2013-08-02 10:41:00,
2013-08-02 06:43:00,62.0,56.8,29.87,South,183,0.0,1.0,83,0.00,,---,0.00,VWS V14.00,2013-08-02 10:43:00,
2013-08-02 06:44:00,62.0,57.1,29.87,South,183,0.0,1.0,84,0.00,,---,0.00,VWS V14.00,2013-08-02 10:44:00,
2013-08-02 06:46:00,62.0,56.8,29.87,South,183,0.0,1.0,83,0.00,,---,0.00,VWS V14.00,2013-08-02 10:46:00,
2013-08-02 06:48:00,62.0,56.8,29.87,South,183,0.0,1.0,83,0.00,,---,0.00,VWS V14.00,2013-08-02 10:48:00,
2013-08-02 06:50:00,62.0,56.8,29.87,South,183,0.0,1.0,83,0.00,,---,0.00,VWS V14.00,2013-08-02 10:50:00,
2013-08-02 06:51:00,62.0,56.8,29.87,South,183,0.0,1.0,83,0.00,,---,0.00,VWS V14.00,2013-08-02 10:51:00,
2013-08-02 06:52:00,62.0,56.8,29.87,South,183,0.0,1.0,83,0.00,,---,0.00,VWS V14.00,2013-08-02 10:52:00,
2013-08-02 06:53:00,62.1,56.9,29.87,South,183,0.0,1.0,83,0.00,,---,0.00,VWS V14.00,2013-08-02 10:53:00,
2013-08-02 06:55:00,62.1,56.5,29.87,South,183,0.0,1.0,82,0.00,,---,0.00,VWS V14.00,2013-08-02 10:55:00,
2013-08-02 06:57:00,62.2,56.6,29.87,South,183,0.0,1.0,82,0.00,,---,0.00,VWS V14.00,2013-08-02 10:57:00,
2013-08-02 06:58:00,62.2,56.6,29.87,South,183,0.0,1.0,82,0.00,,---,0.00,VWS V14.00,2013-08-02 10:58:00,
2013-08-02 07:01:00,62.3,56.7,29.87,South,183,0.0,1.0,82,0.00,,---,0.00,VWS V14.00,2013-08-02 11:01:00,
2013-08-02 07:03:00,62.5,56.9,29.86,South,183,0.0,2.0,82,0.00,,---,0.00,VWS V14.00,2013-08-02 11:03:00,
2013-08-02 07:04:00,62.5,56.9,29.86,South,182,0.0,2.0,82,0.00,,---,0.00,VWS V14.00,2013-08-02 11:04:00,
2013-08-02 07:06:00,62.5,56.9,29.86,South,176,2.0,5.0,82,0.00,,---,0.00,VWS V14.00,2013-08-02 11:06:00,
2013-08-02 07:07:00,62.5,56.9,29.86,South,176,0.0,5.0,82,0.00,,---,0.00,VWS V14.00,2013-08-02 11:07:00,
2013-08-02 07:08:00,62.5,56.9,29.86,South,176,0.0,5.0,82,0.00,,---,0.00,VWS V14.00,2013-08-02 11:08:00,
2013-08-02 07:09:00,62.5,56.9,29.86,South,176,0.0,5.0,82,0.00,,---,0.00,VWS V14.00,2013-08-02 11:09:00,
2013-08-02 07:11:00,62.5,57.3,29.87,South,176,0.0,5.0,83,0.00,,---,0.00,VWS V14.00,2013-08-02 11:11:00,
2013-08-02 07:12:00,62.5,57.3,29.87,South,178,0.0,5.0,83,0.00,,---,0.00,VWS V14.00,2013-08-02 11:12:00,
2013-08-02 07:13:00,62.5,57.3,29.87,South,183,0.0,5.0,83,0.00,,---,0.00,VWS V14.00,2013-08-02 11:13:00,
2013-08-02 07:14:00,62.6,57.4,29.87,South,183,0.0,5.0,83,0.00,,---,0.00,VWS V14.00,2013-08-02 11:14:00,
2013-08-02 07:17:00,62.6,57.4,29.86,South,183,0.0,5.0,83,0.00,,---,0.00,VWS V14.00,2013-08-02 11:17:00,
2013-08-02 07:18:00,62.6,57.4,29.86,South,183,0.0,5.0,83,0.00,,---,0.00,VWS V14.00,2013-08-02 11:18:00,
2013-08-02 07:19:00,62.7,57.5,29.86,South,183,0.0,5.0,83,0.00,,---,0.00,VWS V14.00,2013-08-02 11:19:00,
2013-08-02 07:23:00,62.8,57.6,29.86,South,183,0.0,5.0,83,0.00,,---,0.00,VWS V14.00,2013-08-02 11:23:00,
2013-08-02 07:25:00,62.9,57.7,29.86,South,183,0.0,5.0,83,0.00,,---,0.00,VWS V14.00,2013-08-02 11:25:00,
2013-08-02 07:29:00,63.1,57.9,29.86,South,183,0.0,5.0,83,0.00,,---,0.00,VWS V14.00,2013-08-02 11:29:00,
2013-08-02 07:30:00,63.1,57.9,29.86,South,183,0.0,5.0,83,0.00,,---,0.00,VWS V14.00,2013-08-02 11:30:00,
2013-08-02 07:31:00,63.2,57.6,29.86,South,183,0.0,5.0,82,0.00,,---,0.00,VWS V14.00,2013-08-02 11:31:00,
2013-08-02 07:35:00,63.4,57.8,29.86,South,184,0.0,1.0,82,0.00,,---,0.00,VWS V14.00,2013-08-02 11:35:00,
2013-08-02 07:36:00,63.4,57.8,29.87,South,185,0.0,1.0,82,0.00,,---,0.00,VWS V14.00,2013-08-02 11:36:00,
2013-08-02 07:37:00,63.5,57.9,29.87,South,188,2.0,4.0,82,0.00,,---,0.00,VWS V14.00,2013-08-02 11:37:00,
2013-08-02 07:38:00,63.5,57.6,29.87,South,188,0.0,4.0,81,0.00,,---,0.00,VWS V14.00,2013-08-02 11:38:00,
2013-08-02 07:42:00,63.6,57.3,29.87,South,191,0.0,4.0,80,0.00,,---,0.00,VWS V14.00,2013-08-02 11:42:00,
2013-08-02 07:43:00,63.6,57.3,29.87,SSW,192,0.0,4.0,80,0.00,,---,0.00,VWS V14.00,2013-08-02 11:43:00,
2013-08-02 07:44:00,63.6,57.3,29.87,South,191,0.0,4.0,80,0.00,,---,0.00,VWS V14.00,2013-08-02 11:44:00,
2013-08-02 07:45:00,63.6,57.3,29.87,SSW,192,1.0,4.0,80,0.00,,---,0.00,VWS V14.00,2013-08-02 11:45:00,
2013-08-02 07:48:00,63.7,57.4,29.87,SSW,194,0.0,4.0,80,0.00,,---,0.00,VWS V14.00,2013-08-02 11:48:00,
2013-08-02 07:49:00,63.8,57.5,29.87,SSW,194,0.0,4.0,80,0.00,,---,0.00,VWS V14.00,2013-08-02 11:49:00,
2013-08-02 07:50:00,63.8,57.5,29.87,SSW,194,0.0,4.0,80,0.00,,---,0.00,VWS V14.00,2013-08-02 11:50:00,
2013-08-02 07:51:00,63.8,57.5,29.87,SSW,194,0.0,4.0,80,0.00,,---,0.00,VWS V14.00,2013-08-02 11:51:00,
2013-08-02 07:54:00,63.9,57.6,29.87,SSW,194,0.0,4.0,80,0.00,,---,0.00,VWS V14.00,2013-08-02 11:54:00,
2013-08-02 07:55:00,63.9,57.3,29.88,SSW,199,3.0,6.0,79,0.00,,---,0.00,VWS V14.00,2013-08-02 11:55:00,
2013-08-02 07:57:00,63.9,57.3,29.88,SSW,199,0.0,6.0,79,0.00,,---,0.00,VWS V14.00,2013-08-02 11:57:00,
2013-08-02 08:00:00,63.9,57.6,29.89,SSW,199,0.0,6.0,80,0.00,,---,0.00,VWS V14.00,2013-08-02 12:00:00,
2013-08-02 08:02:00,63.9,57.6,29.89,SSW,200,0.0,1.0,80,0.00,,---,0.00,VWS V14.00,2013-08-02 12:02:00,
2013-08-02 08:03:00,63.9,57.6,29.90,SSW,200,0.0,1.0,80,0.00,,---,0.00,VWS V14.00,2013-08-02 12:03:00,
2013-08-02 08:04:00,63.8,57.5,29.90,SSW,200,0.0,3.0,80,0.00,,---,0.00,VWS V14.00,2013-08-02 12:04:00,
2013-08-02 08:06:00,63.8,57.9,29.90,SSW,200,0.0,3.0,81,0.00,,---,0.00,VWS V14.00,2013-08-02 12:06:00,
2013-08-02 08:09:00,63.6,57.7,29.90,SSW,200,0.0,3.0,81,0.00,,---,0.00,VWS V14.00,2013-08-02 12:09:00,
2013-08-02 08:10:00,63.5,57.9,29.90,SSW,200,0.0,3.0,82,0.00,,---,0.00,VWS V14.00,2013-08-02 12:10:00,
2013-08-02 08:11:00,63.4,57.8,29.90,SSW,200,0.0,3.0,82,0.00,,---,0.00,VWS V14.00,2013-08-02 12:11:00,
2013-08-02 08:12:00,63.4,57.8,29.90,SSW,200,0.0,3.0,82,0.00,,---,0.00,VWS V14.00,2013-08-02 12:12:00,
2013-08-02 08:15:00,63.2,58.0,29.91,WSW,246,2.0,5.0,83,0.01,,---,0.01,VWS V14.00,2013-08-02 12:15:00,
2013-08-02 08:16:00,63.2,58.0,29.91,WSW,256,3.0,5.0,83,0.01,,---,0.01,VWS V14.00,2013-08-02 12:16:00,
2013-08-02 08:17:00,63.2,58.3,29.91,West,281,3.0,7.0,84,0.01,,---,0.01,VWS V14.00,2013-08-02 12:17:00,
2013-08-02 08:18:00,63.1,58.2,29.91,West,281,2.0,7.0,84,0.01,,---,0.01,VWS V14.00,2013-08-02 12:18:00,
2013-08-02 08:20:00,63.0,58.4,29.90,West,280,4.0,7.0,85,0.02,,---,0.02,VWS V14.00,2013-08-02 12:20:00,
2013-08-02 08:21:00,62.9,58.3,29.91,West,281,0.0,7.0,85,0.02,,---,0.02,VWS V14.00,2013-08-02 12:21:00,
2013-08-02 08:22:00,62.9,58.3,29.91,West,277,4.0,7.0,85,0.02,,---,0.02,VWS V14.00,2013-08-02 12:22:00,
2013-08-02 08:23:00,62.8,58.2,29.91,West,277,4.0,7.0,85,0.02,,---,0.02,VWS V14.00,2013-08-02 12:23:00,
2013-08-02 08:24:00,62.7,58.5,29.91,West,267,4.0,10.0,86,0.02,,---,0.02,VWS V14.00,2013-08-02 12:24:00,
2013-08-02 08:25:00,62.7,58.5,29.91,West,267,5.0,10.0,86,0.03,,---,0.03,VWS V14.00,2013-08-02 12:25:00,
2013-08-02 08:26:00,62.6,58.4,29.91,West,267,3.0,10.0,86,0.03,,---,0.03,VWS V14.00,2013-08-02 12:26:00,
2013-08-02 08:29:00,62.4,58.5,29.90,West,268,5.0,10.0,87,0.04,,---,0.04,VWS V14.00,2013-08-02 12:29:00,
2013-08-02 08:30:00,62.3,58.4,29.89,West,269,3.0,10.0,87,0.04,,---,0.04,VWS V14.00,2013-08-02 12:30:00,
2013-08-02 08:31:00,62.3,58.4,29.90,West,268,1.0,10.0,87,0.04,,---,0.04,VWS V14.00,2013-08-02 12:31:00,
2013-08-02 08:34:00,62.1,58.5,29.90,West,268,4.0,7.0,88,0.05,,---,0.05,VWS V14.00,2013-08-02 12:34:00,
2013-08-02 08:36:00,62.1,58.5,29.90,West,269,6.0,8.0,88,0.05,,---,0.05,VWS V14.00,2013-08-02 12:36:00,
2013-08-02 08:38:00,62.0,58.7,29.90,West,269,0.0,8.0,89,0.05,,---,0.05,VWS V14.00,2013-08-02 12:38:00,
2013-08-02 08:39:00,62.0,58.7,29.89,West,265,3.0,8.0,89,0.05,,---,0.05,VWS V14.00,2013-08-02 12:39:00,
2013-08-02 08:40:00,61.9,58.6,29.89,West,265,3.0,8.0,89,0.05,,---,0.05,VWS V14.00,2013-08-02 12:40:00,
2013-08-02 08:41:00,61.9,58.6,29.89,West,264,3.0,8.0,89,0.05,,---,0.05,VWS V14.00,2013-08-02 12:41:00,
2013-08-02 08:43:00,61.9,58.6,29.89,West,264,0.0,8.0,89,0.05,,---,0.05,VWS V14.00,2013-08-02 12:43:00,
2013-08-02 08:44:00,61.8,58.5,29.89,West,264,0.0,8.0,89,0.05,,---,0.05,VWS V14.00,2013-08-02 12:44:00,
2013-08-02 08:45:00,61.8,58.8,29.90,West,267,5.0,8.0,90,0.05,,---,0.05,VWS V14.00,2013-08-02 12:45:00,
2013-08-02 08:46:00,61.8,58.8,29.90,West,267,2.0,8.0,90,0.05,,---,0.05,VWS V14.00,2013-08-02 12:46:00,
2013-08-02 08:48:00,61.8,58.8,29.89,West,267,0.0,8.0,90,0.05,,---,0.05,VWS V14.00,2013-08-02 12:48:00,
2013-08-02 08:50:00,61.8,58.8,29.89,West,267,0.0,8.0,90,0.05,,---,0.05,VWS V14.00,2013-08-02 12:50:00,
2013-08-02 08:51:00,61.8,58.8,29.89,West,267,0.0,8.0,90,0.05,,---,0.05,VWS V14.00,2013-08-02 12:51:00,
2013-08-02 08:52:00,61.8,58.8,29.89,West,267,0.0,8.0,90,0.05,,---,0.05,VWS V14.00,2013-08-02 12:52:00,
2013-08-02 08:53:00,61.8,58.8,29.89,West,267,0.0,8.0,90,0.05,,---,0.05,VWS V14.00,2013-08-02 12:53:00,
2013-08-02 08:56:00,61.8,58.8,29.89,West,267,2.0,8.0,90,0.05,,---,0.05,VWS V14.00,2013-08-02 12:56:00,
2013-08-02 08:57:00,61.7,58.7,29.89,West,267,0.0,8.0,90,0.05,,---,0.05,VWS V14.00,2013-08-02 12:57:00,
2013-08-02 08:58:00,61.7,58.7,29.89,West,267,0.0,8.0,90,0.05,,---,0.05,VWS V14.00,2013-08-02 12:58:00,
2013-08-02 08:59:00,61.7,59.0,29.89,West,267,0.0,8.0,91,0.05,,---,0.05,VWS V14.00,2013-08-02 12:59:00,
2013-08-02 09:01:00,61.7,59.0,29.89,West,267,0.0,8.0,91,0.05,,---,0.05,VWS V14.00,2013-08-02 13:01:00,
2013-08-02 09:04:00,61.7,59.0,29.89,West,267,0.0,1.0,91,0.05,,---,0.05,VWS V14.00,2013-08-02 13:04:00,
2013-08-02 09:05:00,61.7,59.0,29.89,West,267,0.0,1.0,91,0.05,,---,0.05,VWS V14.00,2013-08-02 13:05:00,
2013-08-02 09:07:00,61.7,59.0,29.89,West,267,0.0,2.0,91,0.05,,---,0.05,VWS V14.00,2013-08-02 13:07:00,
2013-08-02 09:10:00,61.7,59.0,29.89,West,267,0.0,2.0,91,0.05,,---,0.05,VWS V14.00,2013-08-02 13:10:00,
2013-08-02 09:11:00,61.6,59.0,29.89,West,267,0.0,2.0,91,0.05,,---,0.05,VWS V14.00,2013-08-02 13:11:00,
2013-08-02 09:13:00,61.7,59.4,29.90,West,267,0.0,2.0,92,0.06,,---,0.06,VWS V14.00,2013-08-02 13:13:00,
2013-08-02 09:16:00,61.8,59.5,29.90,West,266,2.0,5.0,92,0.06,,---,0.06,VWS V14.00,2013-08-02 13:16:00,
2013-08-02 09:17:00,61.8,59.5,29.91,West,267,4.0,7.0,92,0.06,,---,0.06,VWS V14.00,2013-08-02 13:17:00,
2013-08-02 09:19:00,61.8,59.5,29.91,WSW,250,0.0,7.0,92,0.08,,---,0.08,VWS V14.00,2013-08-02 13:19:00,
2013-08-02 09:20:00,61.9,59.5,29.90,WSW,250,4.0,7.0,92,0.08,,---,0.08,VWS V14.00,2013-08-02 13:20:00,
2013-08-02 09:21:00,61.9,59.5,29.90,WSW,250,0.0,7.0,92,0.08,,---,0.08,VWS V14.00,2013-08-02 13:21:00,
2013-08-02 09:22:00,61.8,59.5,29.90,WSW,250,0.0,7.0,92,0.09,,---,0.09,VWS V14.00,2013-08-02 13:22:00,
2013-08-02 09:25:00,61.8,59.5,29.90,WSW,249,2.0,7.0,92,0.10,,---,0.10,VWS V14.00,2013-08-02 13:25:00,
2013-08-02 09:27:00,61.7,59.4,29.91,WSW,249,0.0,7.0,92,0.10,,---,0.10,VWS V14.00,2013-08-02 13:27:00,
2013-08-02 09:28:00,61.7,59.4,29.90,WSW,249,0.0,7.0,92,0.10,,---,0.10,VWS V14.00,2013-08-02 13:28:00,
2013-08-02 09:29:00,61.7,59.4,29.90,WSW,249,0.0,7.0,92,0.10,,---,0.10,VWS V14.00,2013-08-02 13:29:00,
2013-08-02 09:31:00,61.8,59.8,29.89,WSW,249,0.0,0.0,93,0.07,,---,0.11,VWS V14.00,2013-08-02 13:31:00,
2013-08-02 09:33:00,61.9,59.9,29.89,SW,232,6.0,6.0,93,0.07,,---,0.11,VWS V14.00,2013-08-02 13:33:00,
2013-08-02 09:34:00,61.9,59.9,29.89,SW,230,4.0,10.0,93,0.07,,---,0.11,VWS V14.00,2013-08-02 13:34:00,
2013-08-02 09:35:00,61.9,59.9,29.89,SW,222,6.0,10.0,93,0.07,,---,0.11,VWS V14.00,2013-08-02 13:35:00,
2013-08-02 09:36:00,62.0,60.0,29.89,SW,222,0.0,10.0,93,0.07,,---,0.11,VWS V14.00,2013-08-02 13:36:00,
2013-08-02 09:39:00,62.1,60.1,29.89,SSW,200,0.0,10.0,93,0.07,,---,0.11,VWS V14.00,2013-08-02 13:39:00,
2013-08-02 09:41:00,62.1,60.1,29.89,SSW,201,0.0,10.0,93,0.07,,---,0.11,VWS V14.00,2013-08-02 13:41:00,
2013-08-02 09:42:00,62.2,60.2,29.89,SSW,201,0.0,10.0,93,0.07,,---,0.11,VWS V14.00,2013-08-02 13:42:00,
2013-08-02 09:46:00,62.3,60.2,29.89,SSW,206,0.0,10.0,93,0.07,,---,0.11,VWS V14.00,2013-08-02 13:46:00,
2013-08-02 09:47:00,62.3,60.2,29.89,SSW,205,0.0,10.0,93,0.07,,---,0.11,VWS V14.00,2013-08-02 13:47:00,
2013-08-02 09:48:00,62.4,60.3,29.89,SSW,206,0.0,10.0,93,0.07,,---,0.11,VWS V14.00,2013-08-02 13:48:00,
2013-08-02 09:51:00,62.2,60.2,29.89,WSW,250,3.0,10.0,93,0.08,,---,0.12,VWS V14.00,2013-08-02 13:51:00,
2013-08-02 09:52:00,62.2,60.2,29.90,WSW,244,1.0,10.0,93,0.08,,---,0.12,VWS V14.00,2013-08-02 13:52:00,
2013-08-02 09:55:00,62.1,60.1,29.90,SW,233,6.0,10.0,93,0.08,,---,0.12,VWS V14.00,2013-08-02 13:55:00,
2013-08-02 09:56:00,62.0,60.0,29.90,West,268,3.0,10.0,93,0.08,,---,0.12,VWS V14.00,2013-08-02 13:56:00,
2013-08-02 09:57:00,62.0,60.0,29.90,West,263,2.0,10.0,93,0.08,,---,0.12,VWS V14.00,2013-08-02 13:57:00,
2013-08-02 09:58:00,62.0,60.0,29.90,SSW,199,0.0,10.0,93,0.08,,---,0.12,VWS V14.00,2013-08-02 13:58:00,
2013-08-02 10:00:00,62.0,60.0,29.90,SSW,203,1.0,10.0,93,0.08,,---,0.12,VWS V14.00,2013-08-02 14:00:00,
2013-08-02 10:02:00,62.0,60.0,29.90,WSW,254,1.0,9.0,93,0.07,,---,0.12,VWS V14.00,2013-08-02 14:02:00,
2013-08-02 10:03:00,62.0,60.0,29.90,WSW,241,7.0,9.0,93,0.07,,---,0.12,VWS V14.00,2013-08-02 14:03:00,
2013-08-02 10:05:00,62.1,60.1,29.90,SW,225,10.0,10.0,93,0.07,,---,0.12,VWS V14.00,2013-08-02 14:05:00,
2013-08-02 10:06:00,62.1,60.1,29.89,South,190,5.0,16.0,93,0.07,,---,0.12,VWS V14.00,2013-08-02 14:06:00,
2013-08-02 10:08:00,62.2,60.2,29.89,South,182,0.0,16.0,93,0.07,,---,0.12,VWS V14.00,2013-08-02 14:08:00,
2013-08-02 10:10:00,62.4,60.3,29.88,SSW,211,0.0,16.0,93,0.08,,---,0.13,VWS V14.00,2013-08-02 14:10:00,
2013-08-02 10:11:00,62.5,60.5,29.87,SSW,200,2.0,16.0,93,0.09,,---,0.14,VWS V14.00,2013-08-02 14:11:00,
2013-08-02 10:13:00,62.7,61.0,29.87,SSW,202,0.0,16.0,94,0.09,,---,0.14,VWS V14.00,2013-08-02 14:13:00,
2013-08-02 10:16:00,62.8,61.0,29.86,South,172,3.0,16.0,94,0.09,,---,0.14,VWS V14.00,2013-08-02 14:16:00,
2013-08-02 10:18:00,62.8,61.0,29.87,SSE,163,5.0,16.0,94,0.09,,---,0.14,VWS V14.00,2013-08-02 14:18:00,
2013-08-02 10:19:00,62.9,61.2,29.87,South,179,6.0,16.0,94,0.09,,---,0.14,VWS V14.00,2013-08-02 14:19:00,
2013-08-02 10:20:00,62.9,60.8,29.87,SSW,207,0.0,16.0,93,0.09,,---,0.14,VWS V14.00,2013-08-02 14:20:00,
2013-08-02 10:22:00,62.9,60.8,29.86,South,182,3.0,16.0,93,0.09,,---,0.14,VWS V14.00,2013-08-02 14:22:00,
2013-08-02 10:23:00,62.9,60.8,29.86,SW,218,0.0,16.0,93,0.09,,---,0.14,VWS V14.00,2013-08-02 14:23:00,
2013-08-02 10:24:00,62.9,60.8,29.86,SSW,195,2.0,16.0,93,0.09,,---,0.14,VWS V14.00,2013-08-02 14:24:00,
2013-08-02 10:25:00,63.0,61.0,29.86,SSW,205,1.0,16.0,93,0.09,,---,0.14,VWS V14.00,2013-08-02 14:25:00,
2013-08-02 10:27:00,63.1,61.0,29.86,SSW,198,3.0,16.0,93,0.09,,---,0.14,VWS V14.00,2013-08-02 14:27:00,
2013-08-02 10:28:00,63.2,61.2,29.86,South,169,3.0,16.0,93,0.09,,---,0.14,VWS V14.00,2013-08-02 14:28:00,
2013-08-02 10:30:00,63.2,61.2,29.86,South,175,4.0,16.0,93,0.09,,---,0.14,VWS V14.00,2013-08-02 14:30:00,
2013-08-02 10:32:00,63.3,61.5,29.86,SSW,192,1.0,5.0,94,0.03,,---,0.14,VWS V14.00,2013-08-02 14:32:00,
2013-08-02 10:34:00,63.3,61.2,29.86,South,189,3.0,5.0,93,0.03,,---,0.14,VWS V14.00,2013-08-02 14:34:00,
2013-08-02 10:35:00,63.3,61.2,29.86,South,181,3.0,5.0,93,0.03,,---,0.14,VWS V14.00,2013-08-02 14:35:00,
2013-08-02 10:36:00,63.4,61.3,29.86,South,184,0.0,5.0,93,0.03,,---,0.14,VWS V14.00,2013-08-02 14:36:00,
2013-08-02 10:40:00,63.5,61.4,29.86,South,182,0.0,5.0,93,0.03,,---,0.14,VWS V14.00,2013-08-02 14:40:00,
2013-08-02 10:42:00,63.5,61.4,29.86,WSW,244,0.0,11.0,93,0.03,,---,0.14,VWS V14.00,2013-08-02 14:42:00,
2013-08-02 10:45:00,63.5,61.4,29.86,South,180,0.0,11.0,93,0.03,,---,0.14,VWS V14.00,2013-08-02 14:45:00,
2013-08-02 10:48:00,63.4,61.3,29.86,SW,225,0.0,11.0,93,0.03,,---,0.14,VWS V14.00,2013-08-02 14:48:00,
2013-08-02 10:49:00,63.4,61.3,29.86,SSW,207,2.0,11.0,93,0.03,,---,0.14,VWS V14.00,2013-08-02 14:49:00,
2013-08-02 10:50:00,63.4,61.3,29.87,SSW,202,3.0,11.0,93,0.03,,---,0.14,VWS V14.00,2013-08-02 14:50:00,
2013-08-02 10:52:00,63.4,61.3,29.87,SSW,200,0.0,11.0,93,0.03,,---,0.14,VWS V14.00,2013-08-02 14:52:00,
2013-08-02 10:55:00,63.5,61.4,29.86,SSW,198,0.0,11.0,93,0.03,,---,0.14,VWS V14.00,2013-08-02 14:55:00,
2013-08-02 10:56:00,63.5,61.4,29.86,South,188,0.0,11.0,93,0.03,,---,0.14,VWS V14.00,2013-08-02 14:56:00,
2013-08-02 10:57:00,63.5,61.4,29.86,South,182,4.0,11.0,93,0.03,,---,0.14,VWS V14.00,2013-08-02 14:57:00,
2013-08-02 10:58:00,63.5,61.4,29.86,SSW,212,6.0,11.0,93,0.04,,---,0.15,VWS V14.00,2013-08-02 14:58:00,
2013-08-02 10:59:00,63.5,61.4,29.86,SSW,196,0.0,11.0,93,0.04,,---,0.15,VWS V14.00,2013-08-02 14:59:00,
2013-08-02 11:02:00,63.6,61.5,29.86,SSW,196,0.0,1.0,93,0.04,,---,0.16,VWS V14.00,2013-08-02 15:02:00,
2013-08-02 11:03:00,63.7,61.6,29.86,South,186,3.0,4.0,93,0.04,,---,0.16,VWS V14.00,2013-08-02 15:03:00,
2013-08-02 11:04:00,63.7,61.6,29.86,South,182,2.0,5.0,93,0.04,,---,0.16,VWS V14.00,2013-08-02 15:04:00,
2013-08-02 11:08:00,63.6,61.5,29.86,South,182,4.0,9.0,93,0.04,,---,0.16,VWS V14.00,2013-08-02 15:08:00,
2013-08-02 11:09:00,63.6,61.5,29.86,South,180,4.0,9.0,93,0.04,,---,0.16,VWS V14.00,2013-08-02 15:09:00,
2013-08-02 11:12:00,63.6,61.8,29.86,South,171,3.0,9.0,94,0.04,,---,0.16,VWS V14.00,2013-08-02 15:12:00,
2013-08-02 11:14:00,63.7,62.0,29.87,South,171,0.0,9.0,94,0.04,,---,0.16,VWS V14.00,2013-08-02 15:14:00,
2013-08-02 11:15:00,63.7,62.0,29.87,South,172,0.0,9.0,94,0.04,,---,0.16,VWS V14.00,2013-08-02 15:15:00,
2013-08-02 11:16:00,63.7,62.0,29.87,South,172,0.0,9.0,94,0.04,,---,0.16,VWS V14.00,2013-08-02 15:16:00,
2013-08-02 11:17:00,63.7,62.0,29.87,South,173,1.0,9.0,94,0.04,,---,0.16,VWS V14.00,2013-08-02 15:17:00,
2013-08-02 11:19:00,63.7,62.0,29.87,South,175,0.0,9.0,94,0.04,,---,0.16,VWS V14.00,2013-08-02 15:19:00,
2013-08-02 11:20:00,63.8,62.0,29.87,South,175,0.0,9.0,94,0.04,,---,0.16,VWS V14.00,2013-08-02 15:20:00,
2013-08-02 11:21:00,63.8,62.0,29.87,South,175,0.0,9.0,94,0.04,,---,0.16,VWS V14.00,2013-08-02 15:21:00,
2013-08-02 11:22:00,63.8,62.0,29.87,South,175,1.0,9.0,94,0.04,,---,0.16,VWS V14.00,2013-08-02 15:22:00,
2013-08-02 11:24:00,64.0,62.2,29.87,South,175,0.0,9.0,94,0.04,,---,0.16,VWS V14.00,2013-08-02 15:24:00,
2013-08-02 11:26:00,64.0,62.2,29.87,South,180,2.0,9.0,94,0.04,,---,0.16,VWS V14.00,2013-08-02 15:26:00,
2013-08-02 11:27:00,64.0,62.2,29.87,South,182,4.0,9.0,94,0.04,,---,0.16,VWS V14.00,2013-08-02 15:27:00,
2013-08-02 11:29:00,64.0,62.2,29.87,South,182,1.0,9.0,94,0.04,,---,0.16,VWS V14.00,2013-08-02 15:29:00,
2013-08-02 11:31:00,63.9,62.1,29.87,South,175,0.0,9.0,94,0.04,,---,0.16,VWS V14.00,2013-08-02 15:31:00,
2013-08-02 11:32:00,63.9,62.1,29.87,South,176,0.0,1.0,94,0.02,,---,0.16,VWS V14.00,2013-08-02 15:32:00,
2013-08-02 11:34:00,64.0,62.2,29.87,South,176,0.0,1.0,94,0.02,,---,0.16,VWS V14.00,2013-08-02 15:34:00,
2013-08-02 11:36:00,64.1,62.3,29.87,South,176,5.0,5.0,94,0.02,,---,0.16,VWS V14.00,2013-08-02 15:36:00,
2013-08-02 11:39:00,64.3,62.5,29.87,South,178,3.0,5.0,94,0.02,,---,0.16,VWS V14.00,2013-08-02 15:39:00,
2013-08-02 11:40:00,64.4,62.6,29.87,South,183,0.0,6.0,94,0.02,,---,0.16,VWS V14.00,2013-08-02 15:40:00,
2013-08-02 11:41:00,64.4,62.6,29.87,South,184,0.0,6.0,94,0.02,,---,0.16,VWS V14.00,2013-08-02 15:41:00,
2013-08-02 11:45:00,64.6,62.8,29.87,South,186,5.0,7.0,94,0.02,,---,0.16,VWS V14.00,2013-08-02 15:45:00,
2013-08-02 11:46:00,64.7,62.9,29.87,South,186,0.0,7.0,94,0.02,,---,0.16,VWS V14.00,2013-08-02 15:46:00,
2013-08-02 11:47:00,64.7,62.9,29.87,South,184,0.0,7.0,94,0.02,,---,0.16,VWS V14.00,2013-08-02 15:47:00,
2013-08-02 11:50:00,64.8,63.0,29.87,South,188,3.0,7.0,94,0.02,,---,0.16,VWS V14.00,2013-08-02 15:50:00,
2013-08-02 11:52:00,64.9,63.1,29.87,South,189,0.0,7.0,94,0.02,,---,0.16,VWS V14.00,2013-08-02 15:52:00,
2013-08-02 11:53:00,64.9,63.1,29.87,South,189,0.0,7.0,94,0.02,,---,0.16,VWS V14.00,2013-08-02 15:53:00,
2013-08-02 11:54:00,64.9,63.1,29.87,South,189,3.0,7.0,94,0.02,,---,0.16,VWS V14.00,2013-08-02 15:54:00,
2013-08-02 11:57:00,65.0,63.2,29.87,South,191,3.0,7.0,94,0.02,,---,0.16,VWS V14.00,2013-08-02 15:57:00,
2013-08-02 11:58:00,65.1,63.3,29.87,South,191,3.0,7.0,94,0.02,,---,0.16,VWS V14.00,2013-08-02 15:58:00,
2013-08-02 12:00:00,65.2,63.4,29.87,South,191,4.0,7.0,94,0.02,,---,0.16,VWS V14.00,2013-08-02 16:00:00,
2013-08-02 12:01:00,65.2,63.4,29.86,South,190,4.0,4.0,94,0.01,,---,0.16,VWS V14.00,2013-08-02 16:01:00,
2013-08-02 12:03:00,65.2,63.4,29.86,South,180,10.0,11.0,94,0.01,,---,0.16,VWS V14.00,2013-08-02 16:03:00,
2013-08-02 12:04:00,65.2,63.4,29.86,West,266,2.0,11.0,94,0.01,,---,0.16,VWS V14.00,2013-08-02 16:04:00,
2013-08-02 12:08:00,65.0,62.9,29.86,SSW,197,9.0,11.0,93,0.01,,---,0.16,VWS V14.00,2013-08-02 16:08:00,
2013-08-02 12:09:00,65.0,62.9,29.86,SSW,196,4.0,11.0,93,0.01,,---,0.16,VWS V14.00,2013-08-02 16:09:00,
2013-08-02 12:10:00,65.1,63.0,29.86,SSW,192,5.0,11.0,93,0.01,,---,0.16,VWS V14.00,2013-08-02 16:10:00,
2013-08-02 12:13:00,65.3,63.2,29.86,South,173,3.0,11.0,93,0.01,,---,0.16,VWS V14.00,2013-08-02 16:13:00,
2013-08-02 12:14:00,65.3,63.2,29.86,South,191,6.0,11.0,93,0.01,,---,0.16,VWS V14.00,2013-08-02 16:14:00,
2013-08-02 12:16:00,65.2,63.1,29.86,South,182,3.0,11.0,93,0.01,,---,0.16,VWS V14.00,2013-08-02 16:16:00,
2013-08-02 12:17:00,65.2,63.1,29.87,SSE,167,4.0,11.0,93,0.01,,---,0.16,VWS V14.00,2013-08-02 16:17:00,
2013-08-02 12:19:00,65.3,62.9,29.87,SSE,168,0.0,11.0,92,0.01,,---,0.16,VWS V14.00,2013-08-02 16:19:00,
2013-08-02 12:20:00,65.3,62.9,29.88,South,169,0.0,11.0,92,0.01,,---,0.16,VWS V14.00,2013-08-02 16:20:00,
2013-08-02 12:23:00,65.2,62.8,29.89,SSW,201,0.0,11.0,92,0.01,,---,0.16,VWS V14.00,2013-08-02 16:23:00,
2013-08-02 12:25:00,65.1,62.4,29.89,SSW,202,0.0,11.0,91,0.01,,---,0.16,VWS V14.00,2013-08-02 16:25:00,
2013-08-02 12:27:00,65.1,62.4,29.87,SSW,202,0.0,11.0,91,0.01,,---,0.16,VWS V14.00,2013-08-02 16:27:00,
2013-08-02 12:30:00,65.3,62.9,29.87,SSW,194,0.0,11.0,92,0.02,,---,0.17,VWS V14.00,2013-08-02 16:30:00,
2013-08-02 12:31:00,65.3,62.9,29.87,SSW,195,3.0,11.0,92,0.03,,---,0.18,VWS V14.00,2013-08-02 16:31:00,
2013-08-02 12:32:00,65.4,63.0,29.87,SSW,197,0.0,1.0,92,0.02,,---,0.18,VWS V14.00,2013-08-02 16:32:00,
2013-08-02 12:33:00,65.4,62.7,29.87,SSW,199,0.0,1.0,91,0.02,,---,0.18,VWS V14.00,2013-08-02 16:33:00,
2013-08-02 12:37:00,65.3,62.9,29.86,SSW,194,6.0,11.0,92,0.03,,---,0.19,VWS V14.00,2013-08-02 16:37:00,
2013-08-02 12:38:00,65.3,62.9,29.86,South,190,2.0,11.0,92,0.03,,---,0.19,VWS V14.00,2013-08-02 16:38:00,
2013-08-02 12:40:00,65.4,63.0,29.86,WSW,245,0.0,11.0,92,0.03,,---,0.19,VWS V14.00,2013-08-02 16:40:00,
2013-08-02 12:42:00,65.5,63.1,29.86,SW,221,2.0,11.0,92,0.03,,---,0.19,VWS V14.00,2013-08-02 16:42:00,
2013-08-02 12:44:00,65.6,63.2,29.86,South,173,6.0,11.0,92,0.03,,---,0.19,VWS V14.00,2013-08-02 16:44:00,
2013-08-02 12:45:00,65.7,63.3,29.86,South,173,3.0,11.0,92,0.03,,---,0.19,VWS V14.00,2013-08-02 16:45:00,
2013-08-02 12:48:00,65.9,63.8,29.86,South,182,0.0,11.0,93,0.03,,---,0.19,VWS V14.00,2013-08-02 16:48:00,
2013-08-02 12:49:00,65.9,63.5,29.86,South,180,3.0,11.0,92,0.03,,---,0.19,VWS V14.00,2013-08-02 16:49:00,
2013-08-02 12:50:00,66.0,63.9,29.86,South,170,3.0,11.0,93,0.03,,---,0.19,VWS V14.00,2013-08-02 16:50:00,
2013-08-02 12:51:00,66.0,63.6,29.86,South,171,3.0,11.0,92,0.03,,---,0.19,VWS V14.00,2013-08-02 16:51:00,
2013-08-02 12:54:00,66.0,63.6,29.86,SW,234,2.0,11.0,92,0.03,,---,0.19,VWS V14.00,2013-08-02 16:54:00,
2013-08-02 12:55:00,66.1,63.7,29.86,SSW,209,3.0,11.0,92,0.03,,---,0.19,VWS V14.00,2013-08-02 16:55:00,
2013-08-02 12:56:00,66.1,63.7,29.86,South,176,4.0,11.0,92,0.03,,---,0.19,VWS V14.00,2013-08-02 16:56:00,
2013-08-02 12:57:00,66.1,63.7,29.86,South,172,0.0,11.0,92,0.03,,---,0.19,VWS V14.00,2013-08-02 16:57:00,
2013-08-02 13:00:00,66.2,63.8,29.86,South,183,0.0,11.0,92,0.03,,---,0.19,VWS V14.00,2013-08-02 17:00:00,
2013-08-02 13:01:00,66.3,63.9,29.86,South,180,4.0,11.0,92,0.03,,---,0.19,VWS V14.00,2013-08-02 17:01:00,
2013-08-02 13:02:00,66.2,63.8,29.86,SSW,210,6.0,13.0,92,0.03,,---,0.19,VWS V14.00,2013-08-02 17:02:00,
2013-08-02 13:05:00,66.2,63.5,29.86,SSW,198,7.0,13.0,91,0.03,,---,0.19,VWS V14.00,2013-08-02 17:05:00,
2013-08-02 13:06:00,66.2,63.5,29.86,SSW,204,4.0,13.0,91,0.03,,---,0.19,VWS V14.00,2013-08-02 17:06:00,
2013-08-02 13:07:00,66.2,63.5,29.86,SSW,193,0.0,13.0,91,0.03,,---,0.19,VWS V14.00,2013-08-02 17:07:00,
2013-08-02 13:08:00,66.2,63.5,29.86,South,179,12.0,13.0,91,0.03,,---,0.19,VWS V14.00,2013-08-02 17:08:00,
2013-08-02 13:10:00,66.1,63.4,29.86,South,169,4.0,13.0,91,0.03,,---,0.19,VWS V14.00,2013-08-02 17:10:00,
2013-08-02 13:11:00,66.2,63.5,29.86,South,169,3.0,13.0,91,0.03,,---,0.19,VWS V14.00,2013-08-02 17:11:00,
2013-08-02 13:14:00,66.3,63.6,29.85,South,177,5.0,13.0,91,0.03,,---,0.19,VWS V14.00,2013-08-02 17:14:00,
2013-08-02 13:15:00,66.5,63.8,29.85,South,172,4.0,13.0,91,0.03,,---,0.19,VWS V14.00,2013-08-02 17:15:00,
2013-08-02 13:16:00,66.5,63.8,29.85,South,174,2.0,13.0,91,0.03,,---,0.19,VWS V14.00,2013-08-02 17:16:00,
2013-08-02 13:17:00,66.6,63.9,29.85,South,184,2.0,13.0,91,0.03,,---,0.19,VWS V14.00,2013-08-02 17:17:00,
2013-08-02 13:18:00,66.6,63.9,29.85,South,173,5.0,13.0,91,0.03,,---,0.19,VWS V14.00,2013-08-02 17:18:00,
2013-08-02 13:20:00,66.7,64.0,29.85,SSE,155,5.0,13.0,91,0.03,,---,0.19,VWS V14.00,2013-08-02 17:20:00,
2013-08-02 13:21:00,66.8,64.1,29.85,SSE,154,5.0,13.0,91,0.03,,---,0.19,VWS V14.00,2013-08-02 17:21:00,
2013-08-02 13:23:00,66.8,63.8,29.85,SSW,192,7.0,13.0,90,0.03,,---,0.19,VWS V14.00,2013-08-02 17:23:00,
2013-08-02 13:25:00,67.2,64.5,29.84,SSE,167,6.0,13.0,91,0.03,,---,0.19,VWS V14.00,2013-08-02 17:25:00,
2013-08-02 13:27:00,67.3,64.3,29.85,South,171,0.0,13.0,90,0.03,,---,0.19,VWS V14.00,2013-08-02 17:27:00,
2013-08-02 13:28:00,67.4,64.4,29.85,SSE,166,5.0,13.0,90,0.03,,---,0.19,VWS V14.00,2013-08-02 17:28:00,
2013-08-02 13:29:00,67.5,64.5,29.85,SSE,166,2.0,13.0,90,0.03,,---,0.19,VWS V14.00,2013-08-02 17:29:00,
2013-08-02 13:31:00,67.6,64.6,29.85,SSE,168,5.0,5.0,90,0.01,,---,0.19,VWS V14.00,2013-08-02 17:31:00,
2013-08-02 13:33:00,67.6,64.2,29.85,SW,236,2.0,7.0,89,0.01,,---,0.19,VWS V14.00,2013-08-02 17:33:00,
2013-08-02 13:34:00,67.6,64.2,29.84,SSW,200,5.0,9.0,89,0.01,,---,0.19,VWS V14.00,2013-08-02 17:34:00,
2013-08-02 13:35:00,67.5,64.2,29.84,SSW,211,11.0,11.0,89,0.01,,---,0.19,VWS V14.00,2013-08-02 17:35:00,
2013-08-02 13:36:00,67.4,63.7,29.84,WSW,242,4.0,11.0,88,0.01,,---,0.19,VWS V14.00,2013-08-02 17:36:00,
2013-08-02 13:39:00,67.4,63.7,29.84,WSW,257,3.0,11.0,88,0.01,,---,0.19,VWS V14.00,2013-08-02 17:39:00,
2013-08-02 13:41:00,67.2,63.5,29.84,WSW,238,0.0,11.0,88,0.01,,---,0.19,VWS V14.00,2013-08-02 17:41:00,
2013-08-02 13:45:00,67.4,63.7,29.84,SSW,207,0.0,11.0,88,0.01,,---,0.19,VWS V14.00,2013-08-02 17:45:00,
2013-08-02 13:47:00,67.4,63.7,29.84,South,182,0.0,11.0,88,0.01,,---,0.19,VWS V14.00,2013-08-02 17:47:00,
2013-08-02 13:50:00,67.7,64.0,29.84,SW,219,4.0,11.0,88,0.01,,---,0.19,VWS V14.00,2013-08-02 17:50:00,
2013-08-02 13:51:00,67.8,64.1,29.84,SSE,165,0.0,11.0,88,0.01,,---,0.19,VWS V14.00,2013-08-02 17:51:00,
2013-08-02 13:52:00,67.9,64.2,29.84,South,188,2.0,11.0,88,0.01,,---,0.19,VWS V14.00,2013-08-02 17:52:00,
2013-08-02 13:54:00,68.1,64.4,29.84,SSW,192,0.0,11.0,88,0.01,,---,0.19,VWS V14.00,2013-08-02 17:54:00,
2013-08-02 13:55:00,68.1,64.4,29.84,SSW,192,7.0,11.0,88,0.01,,---,0.19,VWS V14.00,2013-08-02 17:55:00,
2013-08-02 13:56:00,68.2,64.2,29.84,SSW,205,0.0,11.0,87,0.01,,---,0.19,VWS V14.00,2013-08-02 17:56:00,
2013-08-02 13:58:00,68.3,64.3,29.84,South,191,0.0,11.0,87,0.01,,---,0.19,VWS V14.00,2013-08-02 17:58:00,
2013-08-02 13:59:00,68.5,64.5,29.84,South,182,0.0,11.0,87,0.01,,---,0.19,VWS V14.00,2013-08-02 17:59:00,
2013-08-02 14:01:00,68.6,64.6,29.83,South,182,0.0,11.0,87,0.01,,---,0.19,VWS V14.00,2013-08-02 18:01:00,
2013-08-02 14:02:00,68.6,64.6,29.84,South,188,3.0,5.0,87,0.00,,---,0.19,VWS V14.00,2013-08-02 18:02:00,
2013-08-02 14:04:00,68.6,64.6,29.83,South,188,0.0,5.0,87,0.00,,---,0.19,VWS V14.00,2013-08-02 18:04:00,
2013-08-02 14:05:00,68.6,64.6,29.84,SW,217,5.0,5.0,87,0.00,,---,0.19,VWS V14.00,2013-08-02 18:05:00,
2013-08-02 14:06:00,68.6,64.6,29.84,WSW,246,7.0,10.0,87,0.00,,---,0.19,VWS V14.00,2013-08-02 18:06:00,
2013-08-02 14:07:00,68.5,64.2,29.84,SW,229,2.0,10.0,86,0.00,,---,0.19,VWS V14.00,2013-08-02 18:07:00,
2013-08-02 14:11:00,68.4,64.1,29.84,WSW,253,1.0,11.0,86,0.00,,---,0.19,VWS V14.00,2013-08-02 18:11:00,
2013-08-02 14:12:00,68.4,64.1,29.84,SSW,208,10.0,12.0,86,0.00,,---,0.19,VWS V14.00,2013-08-02 18:12:00,
2013-08-02 14:14:00,68.5,64.2,29.84,WSW,239,6.0,12.0,86,0.00,,---,0.19,VWS V14.00,2013-08-02 18:14:00,
2013-08-02 14:15:00,68.5,64.2,29.83,WSW,244,4.0,12.0,86,0.00,,---,0.19,VWS V14.00,2013-08-02 18:15:00,
2013-08-02 14:18:00,68.9,64.9,29.84,WSW,244,3.0,12.0,87,0.00,,---,0.19,VWS V14.00,2013-08-02 18:18:00,
2013-08-02 14:19:00,69.2,65.2,29.83,WSW,244,0.0,12.0,87,0.00,,---,0.19,VWS V14.00,2013-08-02 18:19:00,
2013-08-02 14:20:00,69.2,65.2,29.84,WSW,246,6.0,12.0,87,0.00,,---,0.19,VWS V14.00,2013-08-02 18:20:00,
2013-08-02 14:21:00,69.4,65.4,29.84,West,274,6.0,12.0,87,0.00,,---,0.19,VWS V14.00,2013-08-02 18:21:00,
2013-08-02 14:23:00,69.6,65.2,29.84,West,261,5.0,12.0,86,0.00,,---,0.19,VWS V14.00,2013-08-02 18:23:00,
2013-08-02 14:24:00,69.7,65.3,29.84,SW,236,7.0,12.0,86,0.00,,---,0.19,VWS V14.00,2013-08-02 18:24:00,
2013-08-02 14:26:00,69.7,65.0,29.83,West,267,7.0,12.0,85,0.00,,---,0.19,VWS V14.00,2013-08-02 18:26:00,
2013-08-02 14:27:00,69.7,65.0,29.83,WSW,256,4.0,12.0,85,0.00,,---,0.19,VWS V14.00,2013-08-02 18:27:00,
2013-08-02 14:29:00,69.7,65.0,29.83,West,261,5.0,12.0,85,0.00,,---,0.19,VWS V14.00,2013-08-02 18:29:00,
2013-08-02 14:30:00,69.7,65.0,29.83,SW,226,7.0,12.0,85,0.00,,---,0.19,VWS V14.00,2013-08-02 18:30:00,
2013-08-02 14:31:00,69.7,65.0,29.83,SW,236,9.0,12.0,85,0.00,,---,0.19,VWS V14.00,2013-08-02 18:31:00,
2013-08-02 14:33:00,69.6,64.6,29.83,WSW,238,3.0,9.0,84,0.00,,---,0.19,VWS V14.00,2013-08-02 18:33:00,
2013-08-02 14:34:00,69.6,64.9,29.83,SW,222,6.0,10.0,85,0.00,,---,0.19,VWS V14.00,2013-08-02 18:34:00,
2013-08-02 14:35:00,69.6,64.9,29.83,WSW,251,7.0,10.0,85,0.00,,---,0.19,VWS V14.00,2013-08-02 18:35:00,
2013-08-02 14:36:00,69.6,64.9,29.83,West,272,2.0,10.0,85,0.00,,---,0.19,VWS V14.00,2013-08-02 18:36:00,
2013-08-02 14:39:00,69.7,65.0,29.83,WSW,242,0.0,10.0,85,0.00,,---,0.19,VWS V14.00,2013-08-02 18:39:00,
2013-08-02 14:40:00,69.7,65.0,29.83,SSW,194,1.0,10.0,85,0.00,,---,0.19,VWS V14.00,2013-08-02 18:40:00,
2013-08-02 14:42:00,69.8,65.1,29.83,SW,232,0.0,10.0,85,0.00,,---,0.19,VWS V14.00,2013-08-02 18:42:00,
2013-08-02 14:44:00,70.0,65.3,29.83,SW,232,0.0,10.0,85,0.00,,---,0.19,VWS V14.00,2013-08-02 18:44:00,
2013-08-02 14:45:00,70.1,65.4,29.83,SW,232,0.0,10.0,85,0.00,,---,0.19,VWS V14.00,2013-08-02 18:45:00,
2013-08-02 14:47:00,70.2,65.5,29.83,WSW,238,1.0,10.0,85,0.00,,---,0.19,VWS V14.00,2013-08-02 18:47:00,
2013-08-02 14:48:00,70.2,65.5,29.83,WSW,238,2.0,10.0,85,0.00,,---,0.19,VWS V14.00,2013-08-02 18:48:00,
2013-08-02 14:50:00,70.3,65.6,29.83,West,272,7.0,10.0,85,0.00,,---,0.19,VWS V14.00,2013-08-02 18:50:00,
2013-08-02 14:52:00,70.2,65.1,29.83,West,273,4.0,11.0,84,0.00,,---,0.19,VWS V14.00,2013-08-02 18:52:00,
2013-08-02 14:53:00,70.2,65.1,29.83,West,273,2.0,11.0,84,0.00,,---,0.19,VWS V14.00,2013-08-02 18:53:00,
2013-08-02 14:57:00,70.2,65.1,29.84,West,264,6.0,11.0,84,0.00,,---,0.19,VWS V14.00,2013-08-02 18:57:00,
2013-08-02 14:58:00,70.1,65.1,29.84,West,272,7.0,11.0,84,0.00,,---,0.19,VWS V14.00,2013-08-02 18:58:00,
2013-08-02 14:59:00,70.0,64.9,29.84,West,265,6.0,11.0,84,0.00,,---,0.19,VWS V14.00,2013-08-02 18:59:00,
2013-08-02 15:01:00,69.9,64.8,29.84,West,265,4.0,11.0,84,0.00,,---,0.19,VWS V14.00,2013-08-02 19:01:00,
2013-08-02 15:02:00,69.9,64.8,29.84,West,265,4.0,4.0,84,0.00,,---,0.19,VWS V14.00,2013-08-02 19:02:00,
2013-08-02 15:03:00,69.9,65.2,29.84,West,265,4.0,5.0,85,0.00,,---,0.19,VWS V14.00,2013-08-02 19:03:00,
2013-08-02 15:04:00,69.9,65.2,29.84,West,265,0.0,5.0,85,0.00,,---,0.19,VWS V14.00,2013-08-02 19:04:00,
2013-08-02 15:05:00,69.9,65.2,29.83,West,265,6.0,7.0,85,0.00,,---,0.19,VWS V14.00,2013-08-02 19:05:00,
2013-08-02 15:08:00,69.9,65.2,29.83,West,259,5.0,8.0,85,0.00,,---,0.19,VWS V14.00,2013-08-02 19:08:00,
2013-08-02 15:09:00,69.9,65.2,29.83,West,259,2.0,8.0,85,0.00,,---,0.19,VWS V14.00,2013-08-02 19:09:00,
2013-08-02 15:11:00,69.9,65.2,29.83,West,259,4.0,8.0,85,0.00,,---,0.19,VWS V14.00,2013-08-02 19:11:00,
2013-08-02 15:14:00,70.0,65.6,29.84,WSW,241,4.0,8.0,86,0.00,,---,0.19,VWS V14.00,2013-08-02 19:14:00,
2013-08-02 15:15:00,70.1,65.7,29.84,WSW,253,3.0,8.0,86,0.00,,---,0.19,VWS V14.00,2013-08-02 19:15:00,
2013-08-02 15:16:00,70.1,65.7,29.84,WSW,253,0.0,8.0,86,0.00,,---,0.19,VWS V14.00,2013-08-02 19:16:00,
2013-08-02 15:17:00,70.2,65.8,29.84,WSW,253,0.0,8.0,86,0.00,,---,0.19,VWS V14.00,2013-08-02 19:17:00,
2013-08-02 15:18:00,70.3,65.9,29.84,WSW,253,0.0,8.0,86,0.00,,---,0.19,VWS V14.00,2013-08-02 19:18:00,
2013-08-02 15:20:00,70.4,66.0,29.84,WSW,253,1.0,8.0,86,0.00,,---,0.19,VWS V14.00,2013-08-02 19:20:00,
2013-08-02 15:21:00,70.5,66.1,29.83,WSW,253,0.0,8.0,86,0.00,,---,0.19,VWS V14.00,2013-08-02 19:21:00,
2013-08-02 15:22:00,70.5,66.1,29.83,WSW,253,0.0,8.0,86,0.00,,---,0.19,VWS V14.00,2013-08-02 19:22:00,
2013-08-02 15:24:00,70.7,66.0,29.84,WSW,253,0.0,8.0,85,0.00,,---,0.19,VWS V14.00,2013-08-02 19:24:00,
2013-08-02 15:26:00,71.0,66.6,29.83,WSW,253,3.0,8.0,86,0.00,,---,0.19,VWS V14.00,2013-08-02 19:26:00,
2013-08-02 15:27:00,71.1,66.4,29.83,WSW,254,5.0,8.0,85,0.00,,---,0.19,VWS V14.00,2013-08-02 19:27:00,
2013-08-02 15:29:00,71.2,66.5,29.83,WSW,256,5.0,8.0,85,0.00,,---,0.19,VWS V14.00,2013-08-02 19:29:00,
2013-08-02 15:32:00,71.3,66.6,29.83,WSW,256,3.0,3.0,85,0.00,,---,0.19,VWS V14.00,2013-08-02 19:32:00,
2013-08-02 15:34:00,71.3,66.2,29.83,WSW,257,4.0,6.0,84,0.00,,---,0.19,VWS V14.00,2013-08-02 19:34:00,
2013-08-02 15:37:00,71.4,66.3,29.84,West,259,3.0,6.0,84,0.00,,---,0.19,VWS V14.00,2013-08-02 19:37:00,
2013-08-02 15:38:00,71.5,66.4,29.84,West,259,5.0,6.0,84,0.00,,---,0.19,VWS V14.00,2013-08-02 19:38:00,
2013-08-02 15:39:00,71.5,66.4,29.84,West,259,0.0,6.0,84,0.00,,---,0.19,VWS V14.00,2013-08-02 19:39:00,
2013-08-02 15:40:00,71.5,66.8,29.84,West,259,0.0,6.0,85,0.00,,---,0.19,VWS V14.00,2013-08-02 19:40:00,
2013-08-02 15:42:00,71.6,66.9,29.84,West,263,0.0,6.0,85,0.00,,---,0.19,VWS V14.00,2013-08-02 19:42:00,
2013-08-02 15:44:00,71.7,66.9,29.84,West,263,0.0,6.0,85,0.00,,---,0.19,VWS V14.00,2013-08-02 19:44:00,
2013-08-02 15:46:00,71.7,66.9,29.84,West,263,3.0,6.0,85,0.00,,---,0.19,VWS V14.00,2013-08-02 19:46:00,
2013-08-02 15:47:00,71.8,66.7,29.84,West,263,2.0,6.0,84,0.00,,---,0.19,VWS V14.00,2013-08-02 19:47:00,
2013-08-02 15:49:00,71.8,67.1,29.84,West,263,3.0,6.0,85,0.00,,---,0.19,VWS V14.00,2013-08-02 19:49:00,
2013-08-02 15:50:00,71.8,67.1,29.84,West,263,3.0,6.0,85,0.00,,---,0.19,VWS V14.00,2013-08-02 19:50:00,
2013-08-02 15:51:00,71.8,66.7,29.84,West,263,3.0,6.0,84,0.00,,---,0.19,VWS V14.00,2013-08-02 19:51:00,
2013-08-02 15:54:00,71.9,66.8,29.84,West,263,3.0,6.0,84,0.00,,---,0.19,VWS V14.00,2013-08-02 19:54:00,
2013-08-02 15:56:00,72.0,66.9,29.83,West,263,4.0,6.0,84,0.00,,---,0.19,VWS V14.00,2013-08-02 19:56:00,
2013-08-02 15:58:00,72.1,67.0,29.83,West,263,0.0,6.0,84,0.00,,---,0.19,VWS V14.00,2013-08-02 19:58:00,
2013-08-02 16:00:00,72.2,67.1,29.83,West,263,0.0,6.0,84,0.00,,---,0.19,VWS V14.00,2013-08-02 20:00:00,
2013-08-02 16:01:00,72.3,67.2,29.83,West,263,0.0,6.0,84,0.00,,---,0.19,VWS V14.00,2013-08-02 20:01:00,
2013-08-02 16:02:00,72.4,67.3,29.83,West,263,0.0,5.0,84,0.00,,---,0.19,VWS V14.00,2013-08-02 20:02:00,
2013-08-02 16:06:00,72.7,67.6,29.83,West,269,6.0,7.0,84,0.00,,---,0.19,VWS V14.00,2013-08-02 20:06:00,
2013-08-02 16:07:00,72.9,67.8,29.83,West,272,6.0,7.0,84,0.00,,---,0.19,VWS V14.00,2013-08-02 20:07:00,
2013-08-02 16:08:00,73.0,67.9,29.83,West,277,4.0,7.0,84,0.00,,---,0.19,VWS V14.00,2013-08-02 20:08:00,
2013-08-02 16:09:00,73.0,67.9,29.83,West,277,4.0,7.0,84,0.00,,---,0.19,VWS V14.00,2013-08-02 20:09:00,
2013-08-02 16:13:00,73.6,68.1,29.82,NW,309,4.0,9.0,83,0.00,,---,0.19,VWS V14.00,2013-08-02 20:13:00,
2013-08-02 16:14:00,73.8,68.3,29.82,NW,309,6.0,9.0,83,0.00,,---,0.19,VWS V14.00,2013-08-02 20:14:00,
2013-08-02 16:15:00,73.9,68.4,29.82,NW,309,1.0,9.0,83,0.00,,---,0.19,VWS V14.00,2013-08-02 20:15:00,
2013-08-02 16:19:00,74.2,68.4,29.82,NW,315,4.0,10.0,82,0.00,,---,0.19,VWS V14.00,2013-08-02 20:19:00,
2013-08-02 16:22:00,74.3,68.1,29.82,WNW,296,1.0,10.0,81,0.00,,---,0.19,VWS V14.00,2013-08-02 20:22:00,
2013-08-02 16:24:00,74.3,68.1,29.82,WNW,296,0.0,10.0,81,0.00,,---,0.19,VWS V14.00,2013-08-02 20:24:00,
2013-08-02 16:25:00,74.3,68.1,29.82,West,277,5.0,10.0,81,0.00,,---,0.19,VWS V14.00,2013-08-02 20:25:00,
2013-08-02 16:28:00,74.4,68.2,29.82,West,275,7.0,10.0,81,0.00,,---,0.19,VWS V14.00,2013-08-02 20:28:00,
2013-08-02 16:29:00,74.4,68.2,29.82,West,281,5.0,10.0,81,0.00,,---,0.19,VWS V14.00,2013-08-02 20:29:00,
2013-08-02 16:30:00,74.3,67.7,29.82,West,273,6.0,10.0,80,0.00,,---,0.19,VWS V14.00,2013-08-02 20:30:00,
2013-08-02 16:31:00,74.3,67.7,29.82,West,273,6.0,10.0,80,0.00,,---,0.19,VWS V14.00,2013-08-02 20:31:00,
2013-08-02 16:33:00,74.2,68.0,29.82,West,273,5.0,7.0,81,0.00,,---,0.19,VWS V14.00,2013-08-02 20:33:00,
2013-08-02 16:36:00,74.3,68.1,29.82,West,272,5.0,9.0,81,0.00,,---,0.19,VWS V14.00,2013-08-02 20:36:00,
2013-08-02 16:37:00,74.4,68.2,29.82,West,272,7.0,9.0,81,0.00,,---,0.19,VWS V14.00,2013-08-02 20:37:00,
2013-08-02 16:39:00,74.5,68.3,29.81,West,272,0.0,9.0,81,0.00,,---,0.19,VWS V14.00,2013-08-02 20:39:00,
2013-08-02 16:41:00,74.7,68.5,29.81,West,273,5.0,9.0,81,0.00,,---,0.19,VWS V14.00,2013-08-02 20:41:00,
2013-08-02 16:42:00,74.8,68.6,29.81,West,273,0.0,9.0,81,0.00,,---,0.19,VWS V14.00,2013-08-02 20:42:00,
2013-08-02 16:43:00,74.9,68.7,29.81,West,273,2.0,9.0,81,0.00,,---,0.19,VWS V14.00,2013-08-02 20:43:00,
2013-08-02 16:44:00,75.0,68.8,29.81,West,280,5.0,9.0,81,0.00,,---,0.19,VWS V14.00,2013-08-02 20:44:00,
2013-08-02 16:47:00,75.4,68.8,29.81,West,281,4.0,9.0,80,0.00,,---,0.19,VWS V14.00,2013-08-02 20:47:00,
2013-08-02 16:48:00,75.5,68.9,29.81,West,281,2.0,9.0,80,0.00,,---,0.19,VWS V14.00,2013-08-02 20:48:00,
2013-08-02 16:49:00,75.6,69.4,29.81,West,281,5.0,9.0,81,0.00,,---,0.19,VWS V14.00,2013-08-02 20:49:00,
2013-08-02 16:50:00,75.8,69.2,29.81,West,281,4.0,9.0,80,0.00,,---,0.19,VWS V14.00,2013-08-02 20:50:00,
2013-08-02 16:54:00,75.7,68.7,29.81,NNW,330,5.0,12.0,79,0.00,,---,0.19,VWS V14.00,2013-08-02 20:54:00,
2013-08-02 16:55:00,75.6,68.6,29.81,NW,309,6.0,12.0,79,0.00,,---,0.19,VWS V14.00,2013-08-02 20:55:00,
2013-08-02 16:56:00,75.6,68.6,29.81,WNW,303,0.0,12.0,79,0.00,,---,0.19,VWS V14.00,2013-08-02 20:56:00,
2013-08-02 16:57:00,75.5,68.5,29.80,NW,318,0.0,12.0,79,0.00,,---,0.19,VWS V14.00,2013-08-02 20:57:00,
2013-08-02 17:00:00,75.5,68.5,29.81,WNW,296,5.0,12.0,79,0.00,,---,0.19,VWS V14.00,2013-08-02 21:00:00,
2013-08-02 17:01:00,75.5,68.9,29.81,NW,322,5.0,12.0,80,0.00,,---,0.19,VWS V14.00,2013-08-02 21:01:00,
2013-08-02 17:03:00,75.6,68.6,29.80,NNW,346,2.0,7.0,79,0.00,,---,0.19,VWS V14.00,2013-08-02 21:03:00,
2013-08-02 17:06:00,76.1,69.1,29.80,NW,315,5.0,7.0,79,0.00,,---,0.19,VWS V14.00,2013-08-02 21:06:00,
2013-08-02 17:08:00,76.4,69.4,29.80,NNW,340,0.0,7.0,79,0.00,,---,0.19,VWS V14.00,2013-08-02 21:08:00,
2013-08-02 17:09:00,76.6,69.2,29.80,NW,322,0.0,7.0,78,0.00,,---,0.19,VWS V14.00,2013-08-02 21:09:00,
2013-08-02 17:12:00,76.7,68.9,29.80,NNW,333,3.0,10.0,77,0.00,,---,0.19,VWS V14.00,2013-08-02 21:12:00,
2013-08-02 17:13:00,76.7,68.9,29.80,NNW,343,1.0,10.0,77,0.00,,---,0.19,VWS V14.00,2013-08-02 21:13:00,
2013-08-02 17:14:00,76.6,68.9,29.79,NW,306,9.0,12.0,77,0.00,,---,0.19,VWS V14.00,2013-08-02 21:14:00,
2013-08-02 17:15:00,76.5,68.8,29.80,NW,319,5.0,12.0,77,0.00,,---,0.19,VWS V14.00,2013-08-02 21:15:00,
2013-08-02 17:16:00,76.4,68.7,29.80,NW,322,5.0,12.0,77,0.00,,---,0.19,VWS V14.00,2013-08-02 21:16:00,
2013-08-02 17:18:00,76.1,68.4,29.80,NNW,336,0.0,12.0,77,0.00,,---,0.19,VWS V14.00,2013-08-02 21:18:00,
2013-08-02 17:19:00,76.1,68.4,29.80,NNW,336,0.0,12.0,77,0.00,,---,0.19,VWS V14.00,2013-08-02 21:19:00,
2013-08-02 17:20:00,76.0,68.3,29.80,NW,317,0.0,12.0,77,0.00,,---,0.19,VWS V14.00,2013-08-02 21:20:00,
2013-08-02 17:21:00,76.0,68.3,29.80,NNW,344,0.0,12.0,77,0.00,,---,0.19,VWS V14.00,2013-08-02 21:21:00,
2013-08-02 17:24:00,75.7,68.4,29.79,NW,324,5.0,13.0,78,0.00,,---,0.19,VWS V14.00,2013-08-02 21:24:00,
2013-08-02 17:25:00,75.7,68.4,29.80,NNW,337,7.0,13.0,78,0.00,,---,0.19,VWS V14.00,2013-08-02 21:25:00,
2013-08-02 17:27:00,75.6,68.3,29.80,NW,326,0.0,13.0,78,0.00,,---,0.19,VWS V14.00,2013-08-02 21:27:00,
2013-08-02 17:30:00,75.5,68.2,29.80,NNW,327,10.0,13.0,78,0.00,,---,0.19,VWS V14.00,2013-08-02 21:30:00,
2013-08-02 17:31:00,75.3,68.0,29.80,WNW,300,0.0,13.0,78,0.00,,---,0.19,VWS V14.00,2013-08-02 21:31:00,
2013-08-02 17:33:00,75.2,67.9,29.80,NNW,331,3.0,10.0,78,0.00,,---,0.19,VWS V14.00,2013-08-02 21:33:00,
2013-08-02 17:35:00,75.2,68.2,29.80,NNW,329,0.0,10.0,79,0.00,,---,0.19,VWS V14.00,2013-08-02 21:35:00,
2013-08-02 17:36:00,75.1,68.2,29.80,NNW,329,0.0,10.0,79,0.00,,---,0.19,VWS V14.00,2013-08-02 21:36:00,
2013-08-02 17:37:00,75.1,68.2,29.80,NNW,331,5.0,10.0,79,0.00,,---,0.19,VWS V14.00,2013-08-02 21:37:00,
2013-08-02 17:39:00,75.0,68.1,29.80,NNW,342,0.0,11.0,79,0.00,,---,0.19,VWS V14.00,2013-08-02 21:39:00,
2013-08-02 17:42:00,74.9,67.6,29.80,WNW,299,0.0,11.0,78,0.00,,---,0.19,VWS V14.00,2013-08-02 21:42:00,
2013-08-02 17:43:00,75.0,68.1,29.80,WNW,300,0.0,11.0,79,0.00,,---,0.19,VWS V14.00,2013-08-02 21:43:00,
2013-08-02 17:45:00,75.1,67.8,29.80,NW,313,4.0,12.0,78,0.00,,---,0.19,VWS V14.00,2013-08-02 21:45:00,
2013-08-02 17:48:00,75.1,67.8,29.80,NNW,331,7.0,12.0,78,0.00,,---,0.19,VWS V14.00,2013-08-02 21:48:00,
2013-08-02 17:51:00,75.2,67.9,29.80,NNW,328,0.0,13.0,78,0.00,,---,0.19,VWS V14.00,2013-08-02 21:51:00,
2013-08-02 17:53:00,75.2,67.9,29.81,North,350,0.0,13.0,78,0.00,,---,0.19,VWS V14.00,2013-08-02 21:53:00,
2013-08-02 17:55:00,75.3,68.0,29.81,North,349,0.0,13.0,78,0.00,,---,0.19,VWS V14.00,2013-08-02 21:55:00,
2013-08-02 17:56:00,75.4,68.1,29.80,NNW,342,0.0,13.0,78,0.00,,---,0.19,VWS V14.00,2013-08-02 21:56:00,
2013-08-02 18:00:00,75.9,68.2,29.80,WNW,284,5.0,13.0,77,0.00,,---,0.19,VWS V14.00,2013-08-02 22:00:00,
2013-08-02 18:01:00,76.0,68.3,29.80,WNW,290,6.0,13.0,77,0.00,,---,0.19,VWS V14.00,2013-08-02 22:01:00,
2013-08-02 18:02:00,76.0,68.3,29.80,WNW,286,7.0,11.0,77,0.00,,---,0.19,VWS V14.00,2013-08-02 22:02:00,
2013-08-02 18:05:00,76.1,68.0,29.80,WNW,289,0.0,11.0,76,0.00,,---,0.19,VWS V14.00,2013-08-02 22:05:00,
2013-08-02 18:06:00,76.2,68.1,29.80,WNW,290,5.0,11.0,76,0.00,,---,0.19,VWS V14.00,2013-08-02 22:06:00,
2013-08-02 18:07:00,76.2,68.1,29.80,WNW,298,5.0,11.0,76,0.00,,---,0.19,VWS V14.00,2013-08-02 22:07:00,
2013-08-02 18:11:00,76.4,68.3,29.80,WNW,294,0.0,11.0,76,0.00,,---,0.19,VWS V14.00,2013-08-02 22:11:00,
2013-08-02 18:12:00,76.5,68.4,29.81,WNW,294,0.0,11.0,76,0.00,,---,0.19,VWS V14.00,2013-08-02 22:12:00,
2013-08-02 18:13:00,76.5,68.4,29.80,WNW,298,0.0,11.0,76,0.00,,---,0.19,VWS V14.00,2013-08-02 22:13:00,
2013-08-02 18:17:00,76.3,68.2,29.80,NNW,346,1.0,11.0,76,0.00,,---,0.19,VWS V14.00,2013-08-02 22:17:00,
2013-08-02 18:18:00,76.2,68.1,29.80,NNW,342,8.0,11.0,76,0.00,,---,0.19,VWS V14.00,2013-08-02 22:18:00,
2013-08-02 18:19:00,76.0,67.9,29.80,NNW,336,5.0,11.0,76,0.00,,---,0.19,VWS V14.00,2013-08-02 22:19:00,
2013-08-02 18:22:00,75.7,68.0,29.80,NW,322,0.0,11.0,77,0.00,,---,0.19,VWS V14.00,2013-08-02 22:22:00,
2013-08-02 18:23:00,75.7,68.0,29.81,NW,306,9.0,11.0,77,0.00,,---,0.19,VWS V14.00,2013-08-02 22:23:00,
2013-08-02 18:24:00,75.7,68.0,29.81,NW,313,7.0,11.0,77,0.00,,---,0.19,VWS V14.00,2013-08-02 22:24:00,
2013-08-02 18:27:00,75.8,67.7,29.81,WNW,292,0.0,11.0,76,0.00,,---,0.19,VWS V14.00,2013-08-02 22:27:00,
2013-08-02 18:28:00,75.8,67.7,29.81,WNW,296,0.0,11.0,76,0.00,,---,0.19,VWS V14.00,2013-08-02 22:28:00,
2013-08-02 18:30:00,75.8,68.1,29.81,NNW,336,5.0,11.0,77,0.00,,---,0.19,VWS V14.00,2013-08-02 22:30:00,
2013-08-02 18:31:00,75.8,68.1,29.81,NW,318,0.0,3.0,77,0.00,,---,0.19,VWS V14.00,2013-08-02 22:31:00,
2013-08-02 18:32:00,75.8,68.1,29.81,NW,318,0.0,3.0,77,0.00,,---,0.19,VWS V14.00,2013-08-02 22:32:00,
2013-08-02 18:36:00,75.7,67.6,29.81,WNW,300,5.0,10.0,76,0.00,,---,0.19,VWS V14.00,2013-08-02 22:36:00,
2013-08-02 18:38:00,75.7,67.6,29.81,NW,310,6.0,10.0,76,0.00,,---,0.19,VWS V14.00,2013-08-02 22:38:00,
2013-08-02 18:39:00,75.6,67.5,29.81,NW,319,6.0,10.0,76,0.00,,---,0.19,VWS V14.00,2013-08-02 22:39:00,
2013-08-02 18:42:00,75.6,67.9,29.81,WNW,298,0.0,10.0,77,0.00,,---,0.19,VWS V14.00,2013-08-02 22:42:00,
2013-08-02 18:43:00,75.6,67.9,29.81,WNW,301,0.0,10.0,77,0.00,,---,0.19,VWS V14.00,2013-08-02 22:43:00,
2013-08-02 18:44:00,75.6,67.9,29.81,NW,307,0.0,10.0,77,0.00,,---,0.19,VWS V14.00,2013-08-02 22:44:00,
2013-08-02 18:47:00,75.6,67.9,29.80,North,355,0.0,10.0,77,0.00,,---,0.19,VWS V14.00,2013-08-02 22:47:00,
2013-08-02 18:49:00,75.6,67.9,29.81,NW,318,0.0,10.0,77,0.00,,---,0.19,VWS V14.00,2013-08-02 22:49:00,
2013-08-02 18:50:00,75.7,67.6,29.81,NW,315,0.0,10.0,76,0.00,,---,0.19,VWS V14.00,2013-08-02 22:50:00,
2013-08-02 18:52:00,75.7,67.6,29.81,WNW,292,2.0,10.0,76,0.00,,---,0.19,VWS V14.00,2013-08-02 22:52:00,
2013-08-02 18:54:00,75.7,67.6,29.81,WNW,301,10.0,11.0,76,0.00,,---,0.19,VWS V14.00,2013-08-02 22:54:00,
2013-08-02 18:56:00,75.6,67.1,29.81,WNW,295,3.0,11.0,75,0.00,,---,0.19,VWS V14.00,2013-08-02 22:56:00,
2013-08-02 18:57:00,75.6,67.1,29.81,WNW,299,8.0,11.0,75,0.00,,---,0.19,VWS V14.00,2013-08-02 22:57:00,
2013-08-02 18:58:00,75.5,67.0,29.81,WNW,294,5.0,11.0,75,0.00,,---,0.19,VWS V14.00,2013-08-02 22:58:00,
2013-08-02 18:59:00,75.5,67.0,29.81,NW,322,6.0,11.0,75,0.00,,---,0.19,VWS V14.00,2013-08-02 22:59:00,
2013-08-02 19:01:00,75.2,66.7,29.81,NW,321,6.0,11.0,75,0.00,,---,0.19,VWS V14.00,2013-08-02 23:01:00,
2013-08-02 19:02:00,75.1,66.6,29.81,NW,322,0.0,6.0,75,0.00,,---,0.19,VWS V14.00,2013-08-02 23:02:00,
2013-08-02 19:03:00,75.0,66.9,29.81,NW,322,0.0,6.0,76,0.00,,---,0.19,VWS V14.00,2013-08-02 23:03:00,
2013-08-02 19:04:00,74.9,66.8,29.81,NW,323,6.0,6.0,76,0.00,,---,0.19,VWS V14.00,2013-08-02 23:04:00,
2013-08-02 19:05:00,74.9,66.8,29.81,NW,323,2.0,6.0,76,0.00,,---,0.19,VWS V14.00,2013-08-02 23:05:00,
2013-08-02 19:07:00,74.8,67.1,29.81,NW,322,0.0,6.0,77,0.00,,---,0.19,VWS V14.00,2013-08-02 23:07:00,
2013-08-02 19:08:00,74.8,67.1,29.81,NW,323,0.0,6.0,77,0.00,,---,0.19,VWS V14.00,2013-08-02 23:08:00,
2013-08-02 19:10:00,74.8,67.1,29.81,NW,323,0.0,6.0,77,0.00,,---,0.19,VWS V14.00,2013-08-02 23:10:00,
2013-08-02 19:11:00,74.7,67.0,29.81,NW,322,0.0,6.0,77,0.00,,---,0.19,VWS V14.00,2013-08-02 23:11:00,
2013-08-02 19:12:00,74.6,66.9,29.81,NW,323,0.0,6.0,77,0.00,,---,0.19,VWS V14.00,2013-08-02 23:12:00,
2013-08-02 19:15:00,74.4,66.7,29.81,NNW,328,3.0,6.0,77,0.00,,---,0.19,VWS V14.00,2013-08-02 23:15:00,
2013-08-02 19:16:00,74.3,66.6,29.81,NNW,329,5.0,6.0,77,0.00,,---,0.19,VWS V14.00,2013-08-02 23:16:00,
2013-08-02 19:17:00,74.1,66.4,29.81,NNW,331,4.0,9.0,77,0.00,,---,0.19,VWS V14.00,2013-08-02 23:17:00,
2013-08-02 19:18:00,74.1,66.4,29.81,NNW,330,0.0,9.0,77,0.00,,---,0.19,VWS V14.00,2013-08-02 23:18:00,
2013-08-02 19:20:00,73.9,66.6,29.81,NNW,327,3.0,9.0,78,0.00,,---,0.19,VWS V14.00,2013-08-02 23:20:00,
2013-08-02 19:22:00,73.9,66.6,29.81,NW,323,4.0,9.0,78,0.00,,---,0.19,VWS V14.00,2013-08-02 23:22:00,
2013-08-02 19:23:00,73.8,66.5,29.82,NW,323,3.0,9.0,78,0.00,,---,0.19,VWS V14.00,2013-08-02 23:23:00,
2013-08-02 19:26:00,73.6,66.7,29.81,NW,323,0.0,9.0,79,0.00,,---,0.19,VWS V14.00,2013-08-02 23:26:00,
2013-08-02 19:29:00,73.5,66.6,29.82,NW,323,0.0,9.0,79,0.00,,---,0.19,VWS V14.00,2013-08-02 23:29:00,
2013-08-02 19:30:00,73.4,66.5,29.82,NW,323,0.0,9.0,79,0.00,,---,0.19,VWS V14.00,2013-08-02 23:30:00,
2013-08-02 19:33:00,73.3,66.8,29.82,NW,323,0.0,0.0,80,0.00,,---,0.19,VWS V14.00,2013-08-02 23:33:00,
2013-08-02 19:34:00,73.3,66.8,29.82,NW,323,0.0,0.0,80,0.00,,---,0.19,VWS V14.00,2013-08-02 23:34:00,
2013-08-02 19:35:00,73.3,66.8,29.82,NW,323,6.0,7.0,80,0.00,,---,0.19,VWS V14.00,2013-08-02 23:35:00,
2013-08-02 19:36:00,73.3,66.8,29.82,NW,323,5.0,7.0,80,0.00,,---,0.19,VWS V14.00,2013-08-02 23:36:00,
2013-08-02 19:40:00,73.1,66.6,29.82,NW,323,0.0,7.0,80,0.00,,---,0.19,VWS V14.00,2013-08-02 23:40:00,
2013-08-02 19:41:00,73.1,66.9,29.82,NW,323,0.0,7.0,81,0.00,,---,0.19,VWS V14.00,2013-08-02 23:41:00,
2013-08-02 19:42:00,73.2,67.0,29.82,NW,323,0.0,7.0,81,0.00,,---,0.19,VWS V14.00,2013-08-02 23:42:00,
2013-08-02 19:44:00,73.2,67.0,29.82,NW,323,0.0,7.0,81,0.00,,---,0.19,VWS V14.00,2013-08-02 23:44:00,
2013-08-02 19:47:00,73.1,66.9,29.82,NW,323,3.0,7.0,81,0.00,,---,0.19,VWS V14.00,2013-08-02 23:47:00,
2013-08-02 19:48:00,73.1,66.9,29.82,NW,323,0.0,7.0,81,0.00,,---,0.19,VWS V14.00,2013-08-02 23:48:00,
2013-08-02 19:49:00,73.1,66.9,29.82,NW,323,0.0,7.0,81,0.00,,---,0.19,VWS V14.00,2013-08-02 23:49:00,
2013-08-02 19:50:00,73.1,66.9,29.82,NW,323,0.0,7.0,81,0.00,,---,0.19,VWS V14.00,2013-08-02 23:50:00,
2013-08-02 19:52:00,73.0,67.2,29.82,NW,323,0.0,7.0,82,0.00,,---,0.19,VWS V14.00,2013-08-02 23:52:00,
2013-08-02 19:56:00,72.9,67.1,29.82,NW,323,0.0,7.0,82,0.00,,---,0.19,VWS V14.00,2013-08-02 23:56:00,
2013-08-02 19:57:00,72.9,67.1,29.82,NW,323,0.0,7.0,82,0.00,,---,0.19,VWS V14.00,2013-08-02 23:57:00,
2013-08-02 19:58:00,72.8,67.0,29.83,NW,323,0.0,7.0,82,0.00,,---,0.19,VWS V14.00,2013-08-02 23:58:00,
2013-08-02 20:00:00,72.6,66.8,29.83,NW,323,2.0,7.0,82,0.00,,---,0.19,VWS V14.00,2013-08-03 00:00:00,
2013-08-02 20:04:00,72.5,67.1,29.83,NW,323,0.0,0.0,83,0.00,,---,0.19,VWS V14.00,2013-08-03 00:04:00,
2013-08-02 20:05:00,72.5,67.1,29.83,NW,323,0.0,0.0,83,0.00,,---,0.19,VWS V14.00,2013-08-03 00:05:00,
2013-08-02 20:07:00,72.5,67.1,29.83,NW,323,0.0,0.0,83,0.00,,---,0.19,VWS V14.00,2013-08-03 00:07:00,
2013-08-02 20:09:00,72.5,67.1,29.83,NW,323,0.0,0.0,83,0.00,,---,0.19,VWS V14.00,2013-08-03 00:09:00,
2013-08-02 20:11:00,72.5,67.1,29.83,NW,323,0.0,0.0,83,0.00,,---,0.19,VWS V14.00,2013-08-03 00:11:00,
2013-08-02 20:12:00,72.5,67.1,29.83,NW,323,0.0,0.0,83,0.00,,---,0.19,VWS V14.00,2013-08-03 00:12:00,
2013-08-02 20:14:00,72.5,67.1,29.83,NW,323,0.0,0.0,83,0.00,,---,0.19,VWS V14.00,2013-08-03 00:14:00,
2013-08-02 20:16:00,72.4,66.9,29.83,NW,323,0.0,0.0,83,0.00,,---,0.19,VWS V14.00,2013-08-03 00:16:00,
2013-08-02 20:17:00,72.4,66.9,29.83,NW,323,0.0,0.0,83,0.00,,---,0.19,VWS V14.00,2013-08-03 00:17:00,
2013-08-02 20:18:00,72.4,66.9,29.83,NW,323,0.0,0.0,83,0.00,,---,0.19,VWS V14.00,2013-08-03 00:18:00,
2013-08-02 20:20:00,72.3,66.8,29.83,NW,323,0.0,0.0,83,0.00,,---,0.19,VWS V14.00,2013-08-03 00:20:00,
2013-08-02 20:22:00,72.3,66.8,29.83,NW,323,0.0,0.0,83,0.00,,---,0.19,VWS V14.00,2013-08-03 00:22:00,
2013-08-02 20:24:00,72.2,67.1,29.83,NW,323,0.0,0.0,84,0.00,,---,0.19,VWS V14.00,2013-08-03 00:24:00,
2013-08-02 20:26:00,72.2,67.1,29.83,NW,323,0.0,0.0,84,0.00,,---,0.19,VWS V14.00,2013-08-03 00:26:00,
2013-08-02 20:27:00,72.1,67.0,29.83,NW,323,0.0,0.0,84,0.00,,---,0.19,VWS V14.00,2013-08-03 00:27:00,
2013-08-02 20:29:00,72.1,67.0,29.83,NW,323,0.0,0.0,84,0.00,,---,0.19,VWS V14.00,2013-08-03 00:29:00,
2013-08-02 20:30:00,72.0,66.9,29.83,NW,323,0.0,0.0,84,0.00,,---,0.19,VWS V14.00,2013-08-03 00:30:00,
2013-08-02 20:31:00,72.0,66.9,29.83,NW,323,0.0,0.0,84,0.00,,---,0.19,VWS V14.00,2013-08-03 00:31:00,
2013-08-02 20:32:00,71.9,66.8,29.83,NW,323,0.0,0.0,84,0.00,,---,0.19,VWS V14.00,2013-08-03 00:32:00,
2013-08-02 20:35:00,71.8,66.7,29.83,NW,323,0.0,0.0,84,0.00,,---,0.19,VWS V14.00,2013-08-03 00:35:00,
2013-08-02 20:37:00,71.7,66.9,29.83,NW,323,0.0,0.0,85,0.00,,---,0.19,VWS V14.00,2013-08-03 00:37:00,
2013-08-02 20:38:00,71.6,66.9,29.83,NW,323,0.0,0.0,85,0.00,,---,0.19,VWS V14.00,2013-08-03 00:38:00,
2013-08-02 20:39:00,71.6,66.9,29.83,NW,323,0.0,0.0,85,0.00,,---,0.19,VWS V14.00,2013-08-03 00:39:00,
2013-08-02 20:43:00,71.3,66.6,29.84,NW,323,0.0,0.0,85,0.00,,---,0.19,VWS V14.00,2013-08-03 00:43:00,
2013-08-02 20:44:00,71.3,66.6,29.84,NW,323,0.0,0.0,85,0.00,,---,0.19,VWS V14.00,2013-08-03 00:44:00,
2013-08-02 20:46:00,71.3,66.6,29.84,NW,323,0.0,0.0,85,0.00,,---,0.19,VWS V14.00,2013-08-03 00:46:00,
2013-08-02 20:47:00,71.2,66.5,29.84,NW,323,0.0,0.0,85,0.00,,---,0.19,VWS V14.00,2013-08-03 00:47:00,
2013-08-02 20:49:00,71.1,66.7,29.84,NW,323,0.0,0.0,86,0.00,,---,0.19,VWS V14.00,2013-08-03 00:49:00,
2013-08-02 20:51:00,71.1,66.7,29.84,NW,323,0.0,0.0,86,0.00,,---,0.19,VWS V14.00,2013-08-03 00:51:00,
2013-08-02 20:52:00,71.0,66.6,29.84,NW,323,0.0,0.0,86,0.00,,---,0.19,VWS V14.00,2013-08-03 00:52:00,
2013-08-02 20:54:00,71.0,66.6,29.84,NW,323,0.0,0.0,86,0.00,,---,0.19,VWS V14.00,2013-08-03 00:54:00,
2013-08-02 20:57:00,70.9,66.5,29.84,NW,323,0.0,0.0,86,0.00,,---,0.19,VWS V14.00,2013-08-03 00:57:00,
2013-08-02 20:58:00,70.9,66.5,29.84,NW,323,0.0,0.0,86,0.00,,---,0.19,VWS V14.00,2013-08-03 00:58:00,
2013-08-02 20:59:00,70.8,66.7,29.84,NW,323,0.0,0.0,87,0.00,,---,0.19,VWS V14.00,2013-08-03 00:59:00,
2013-08-02 21:01:00,70.8,66.4,29.84,NW,323,0.0,0.0,86,0.00,,---,0.19,VWS V14.00,2013-08-03 01:01:00,
2013-08-02 21:02:00,70.8,66.4,29.84,NW,323,0.0,0.0,86,0.00,,---,0.19,VWS V14.00,2013-08-03 01:02:00,
2013-08-02 21:04:00,70.7,66.7,29.84,NW,323,0.0,0.0,87,0.00,,---,0.19,VWS V14.00,2013-08-03 01:04:00,
2013-08-02 21:05:00,70.6,66.6,29.84,NW,323,0.0,0.0,87,0.00,,---,0.19,VWS V14.00,2013-08-03 01:05:00,
2013-08-02 21:07:00,70.6,66.6,29.85,NW,323,0.0,0.0,87,0.00,,---,0.19,VWS V14.00,2013-08-03 01:07:00,
2013-08-02 21:11:00,70.4,66.3,29.85,NW,323,0.0,0.0,87,0.00,,---,0.19,VWS V14.00,2013-08-03 01:11:00,
2013-08-02 21:12:00,70.4,66.3,29.85,NW,323,0.0,0.0,87,0.00,,---,0.19,VWS V14.00,2013-08-03 01:12:00,
2013-08-02 21:15:00,70.3,66.2,29.85,NW,323,0.0,0.0,87,0.00,,---,0.19,VWS V14.00,2013-08-03 01:15:00,
2013-08-02 21:17:00,70.3,66.6,29.85,NW,323,0.0,0.0,88,0.00,,---,0.19,VWS V14.00,2013-08-03 01:17:00,
2013-08-02 21:18:00,70.3,66.6,29.85,NW,323,0.0,0.0,88,0.00,,---,0.19,VWS V14.00,2013-08-03 01:18:00,
2013-08-02 21:20:00,70.2,66.5,29.85,NW,323,0.0,0.0,88,0.00,,---,0.19,VWS V14.00,2013-08-03 01:20:00,
2013-08-02 21:22:00,70.2,66.5,29.85,NW,323,0.0,0.0,88,0.00,,---,0.19,VWS V14.00,2013-08-03 01:22:00,
2013-08-02 21:23:00,70.2,66.5,29.85,NW,323,0.0,0.0,88,0.00,,---,0.19,VWS V14.00,2013-08-03 01:23:00,
2013-08-02 21:24:00,70.1,66.4,29.85,NW,323,0.0,0.0,88,0.00,,---,0.19,VWS V14.00,2013-08-03 01:24:00,
2013-08-02 21:26:00,70.1,66.4,29.85,NW,323,0.0,0.0,88,0.00,,---,0.19,VWS V14.00,2013-08-03 01:26:00,
2013-08-02 21:28:00,70.1,66.4,29.85,NW,323,0.0,0.0,88,0.00,,---,0.19,VWS V14.00,2013-08-03 01:28:00,
2013-08-02 21:29:00,70.1,66.4,29.85,NW,323,0.0,0.0,88,0.00,,---,0.19,VWS V14.00,2013-08-03 01:29:00,
2013-08-02 21:30:00,70.0,66.3,29.85,NW,323,0.0,0.0,88,0.00,,---,0.19,VWS V14.00,2013-08-03 01:30:00,
2013-08-02 21:33:00,69.9,66.2,29.85,NW,323,0.0,0.0,88,0.00,,---,0.19,VWS V14.00,2013-08-03 01:33:00,
2013-08-02 21:35:00,69.8,66.1,29.85,NW,323,0.0,0.0,88,0.00,,---,0.19,VWS V14.00,2013-08-03 01:35:00,
2013-08-02 21:36:00,69.8,66.1,29.85,NW,323,0.0,0.0,88,0.00,,---,0.19,VWS V14.00,2013-08-03 01:36:00,
2013-08-02 21:37:00,69.7,66.0,29.85,NW,323,0.0,0.0,88,0.00,,---,0.19,VWS V14.00,2013-08-03 01:37:00,
2013-08-02 21:38:00,69.7,66.0,29.85,NW,323,0.0,0.0,88,0.00,,---,0.19,VWS V14.00,2013-08-03 01:38:00,
2013-08-02 21:41:00,69.6,66.2,29.85,NW,323,0.0,0.0,89,0.00,,---,0.19,VWS V14.00,2013-08-03 01:41:00,
2013-08-02 21:43:00,69.5,66.1,29.86,NW,323,0.0,0.0,89,0.00,,---,0.19,VWS V14.00,2013-08-03 01:43:00,
2013-08-02 21:46:00,69.4,66.0,29.86,NW,323,0.0,0.0,89,0.00,,---,0.19,VWS V14.00,2013-08-03 01:46:00,
2013-08-02 21:47:00,69.4,66.0,29.86,NW,323,0.0,0.0,89,0.00,,---,0.19,VWS V14.00,2013-08-03 01:47:00,
2013-08-02 21:48:00,69.4,66.0,29.86,NW,323,0.0,0.0,89,0.00,,---,0.19,VWS V14.00,2013-08-03 01:48:00,
2013-08-02 21:49:00,69.4,66.0,29.86,NW,323,0.0,0.0,89,0.00,,---,0.19,VWS V14.00,2013-08-03 01:49:00,
2013-08-02 21:53:00,69.3,65.9,29.86,NW,323,0.0,0.0,89,0.00,,---,0.19,VWS V14.00,2013-08-03 01:53:00,
2013-08-02 21:54:00,69.3,65.9,29.86,NW,323,0.0,0.0,89,0.00,,---,0.19,VWS V14.00,2013-08-03 01:54:00,
2013-08-02 21:56:00,69.2,65.8,29.86,NW,323,0.0,0.0,89,0.00,,---,0.19,VWS V14.00,2013-08-03 01:56:00,
2013-08-02 21:59:00,69.1,66.1,29.86,NW,323,0.0,0.0,90,0.00,,---,0.19,VWS V14.00,2013-08-03 01:59:00,
2013-08-02 22:00:00,69.1,66.1,29.86,NW,323,0.0,0.0,90,0.00,,---,0.19,VWS V14.00,2013-08-03 02:00:00,
2013-08-02 22:02:00,69.0,65.9,29.86,NW,323,0.0,0.0,90,0.00,,---,0.19,VWS V14.00,2013-08-03 02:02:00,
2013-08-02 22:03:00,69.0,65.9,29.86,NW,323,0.0,0.0,90,0.00,,---,0.19,VWS V14.00,2013-08-03 02:03:00,
2013-08-02 22:05:00,69.0,65.9,29.86,NW,323,0.0,0.0,90,0.00,,---,0.19,VWS V14.00,2013-08-03 02:05:00,
2013-08-02 22:08:00,68.8,65.8,29.86,NW,323,0.0,0.0,90,0.00,,---,0.19,VWS V14.00,2013-08-03 02:08:00,
2013-08-02 22:09:00,68.8,65.8,29.86,NW,323,0.0,0.0,90,0.00,,---,0.19,VWS V14.00,2013-08-03 02:09:00,
2013-08-02 22:10:00,68.8,65.8,29.86,NW,323,0.0,0.0,90,0.00,,---,0.19,VWS V14.00,2013-08-03 02:10:00,
2013-08-02 22:11:00,68.8,65.8,29.86,NW,323,0.0,0.0,90,0.00,,---,0.19,VWS V14.00,2013-08-03 02:11:00,
2013-08-02 22:13:00,68.6,65.6,29.86,NW,323,0.0,0.0,90,0.00,,---,0.19,VWS V14.00,2013-08-03 02:13:00,
2013-08-02 22:15:00,68.5,65.8,29.86,NW,323,0.0,0.0,91,0.00,,---,0.19,VWS V14.00,2013-08-03 02:15:00,
2013-08-02 22:16:00,68.5,65.8,29.86,NW,323,0.0,0.0,91,0.00,,---,0.19,VWS V14.00,2013-08-03 02:16:00,
2013-08-02 22:18:00,68.4,65.7,29.86,NW,323,0.0,0.0,91,0.00,,---,0.19,VWS V14.00,2013-08-03 02:18:00,
2013-08-02 22:20:00,68.3,65.6,29.86,NW,323,0.0,0.0,91,0.00,,---,0.19,VWS V14.00,2013-08-03 02:20:00,
2013-08-02 22:21:00,68.3,65.6,29.86,NW,323,0.0,0.0,91,0.00,,---,0.19,VWS V14.00,2013-08-03 02:21:00,
2013-08-02 22:23:00,68.2,65.5,29.86,NW,323,0.0,0.0,91,0.00,,---,0.19,VWS V14.00,2013-08-03 02:23:00,
2013-08-02 22:24:00,68.1,65.4,29.86,NW,323,0.0,0.0,91,0.00,,---,0.19,VWS V14.00,2013-08-03 02:24:00,
2013-08-02 22:25:00,68.0,65.3,29.86,NW,323,0.0,0.0,91,0.00,,---,0.19,VWS V14.00,2013-08-03 02:25:00,
2013-08-02 22:26:00,68.0,65.3,29.86,NW,323,0.0,0.0,91,0.00,,---,0.19,VWS V14.00,2013-08-03 02:26:00,
2013-08-02 22:27:00,68.0,65.3,29.86,NW,323,0.0,0.0,91,0.00,,---,0.19,VWS V14.00,2013-08-03 02:27:00,
2013-08-02 22:28:00,67.9,65.2,29.87,NW,323,0.0,0.0,91,0.00,,---,0.19,VWS V14.00,2013-08-03 02:28:00,
2013-08-02 22:32:00,67.8,65.4,29.87,NW,323,0.0,0.0,92,0.00,,---,0.19,VWS V14.00,2013-08-03 02:32:00,
2013-08-02 22:34:00,67.7,65.0,29.86,NW,323,0.0,0.0,91,0.00,,---,0.19,VWS V14.00,2013-08-03 02:34:00,
2013-08-02 22:35:00,67.6,65.2,29.86,NW,323,0.0,0.0,92,0.00,,---,0.19,VWS V14.00,2013-08-03 02:35:00,
2013-08-02 22:38:00,67.5,65.1,29.86,NW,323,0.0,0.0,92,0.00,,---,0.19,VWS V14.00,2013-08-03 02:38:00,
2013-08-02 22:39:00,67.5,65.1,29.86,NW,323,0.0,0.0,92,0.00,,---,0.19,VWS V14.00,2013-08-03 02:39:00,
2013-08-02 22:40:00,67.4,65.0,29.86,NW,323,0.0,0.0,92,0.00,,---,0.19,VWS V14.00,2013-08-03 02:40:00,
2013-08-02 22:41:00,67.4,65.0,29.86,NW,323,0.0,0.0,92,0.00,,---,0.19,VWS V14.00,2013-08-03 02:41:00,
2013-08-02 22:42:00,67.4,65.0,29.86,NW,323,0.0,0.0,92,0.00,,---,0.19,VWS V14.00,2013-08-03 02:42:00,
2013-08-02 22:45:00,67.3,64.9,29.86,NW,323,0.0,0.0,92,0.00,,---,0.19,VWS V14.00,2013-08-03 02:45:00,
2013-08-02 22:46:00,67.3,64.9,29.86,NW,323,0.0,0.0,92,0.00,,---,0.19,VWS V14.00,2013-08-03 02:46:00,
2013-08-02 22:48:00,67.2,64.8,29.87,NW,323,0.0,0.0,92,0.00,,---,0.19,VWS V14.00,2013-08-03 02:48:00,
2013-08-02 22:51:00,67.1,65.0,29.87,NW,323,0.0,0.0,93,0.00,,---,0.19,VWS V14.00,2013-08-03 02:51:00,
2013-08-02 22:52:00,67.1,64.7,29.87,NW,323,0.0,0.0,92,0.00,,---,0.19,VWS V14.00,2013-08-03 02:52:00,
2013-08-02 22:53:00,67.0,64.9,29.87,NW,323,0.0,0.0,93,0.00,,---,0.19,VWS V14.00,2013-08-03 02:53:00,
2013-08-02 22:59:00,66.9,64.8,29.87,NW,323,0.0,0.0,93,0.00,,---,0.19,VWS V14.00,2013-08-03 02:59:00,
2013-08-02 23:01:00,66.9,64.8,29.87,NW,323,0.0,0.0,93,0.00,,---,0.19,VWS V14.00,2013-08-03 03:01:00,
2013-08-02 23:04:00,66.8,64.7,29.86,NW,323,0.0,0.0,93,0.00,,---,0.19,VWS V14.00,2013-08-03 03:04:00,
2013-08-02 23:05:00,66.7,64.6,29.86,NW,323,0.0,0.0,93,0.00,,---,0.19,VWS V14.00,2013-08-03 03:05:00,
2013-08-02 23:06:00,66.7,64.6,29.86,NW,323,0.0,0.0,93,0.00,,---,0.19,VWS V14.00,2013-08-03 03:06:00,
2013-08-02 23:08:00,66.6,64.5,29.86,NW,323,0.0,0.0,93,0.00,,---,0.19,VWS V14.00,2013-08-03 03:08:00,
2013-08-02 23:10:00,66.6,64.5,29.86,NW,323,0.0,0.0,93,0.00,,---,0.19,VWS V14.00,2013-08-03 03:10:00,
2013-08-02 23:13:00,66.4,64.3,29.87,NW,323,0.0,0.0,93,0.00,,---,0.19,VWS V14.00,2013-08-03 03:13:00,
2013-08-02 23:14:00,66.4,64.3,29.87,NW,323,0.0,0.0,93,0.00,,---,0.19,VWS V14.00,2013-08-03 03:14:00,
2013-08-02 23:15:00,66.3,64.2,29.87,NW,323,0.0,0.0,93,0.00,,---,0.19,VWS V14.00,2013-08-03 03:15:00,
2013-08-02 23:16:00,66.3,64.2,29.87,NW,323,0.0,0.0,93,0.00,,---,0.19,VWS V14.00,2013-08-03 03:16:00,
2013-08-02 23:19:00,66.2,64.1,29.87,NW,323,0.0,0.0,93,0.00,,---,0.19,VWS V14.00,2013-08-03 03:19:00,
2013-08-02 23:20:00,66.2,64.4,29.87,NW,323,0.0,0.0,94,0.00,,---,0.19,VWS V14.00,2013-08-03 03:20:00,
2013-08-02 23:22:00,66.1,64.3,29.87,NW,323,0.0,0.0,94,0.00,,---,0.19,VWS V14.00,2013-08-03 03:22:00,
2013-08-02 23:25:00,66.1,64.3,29.87,NW,323,0.0,0.0,94,0.00,,---,0.19,VWS V14.00,2013-08-03 03:25:00,
2013-08-02 23:26:00,66.1,64.3,29.87,NW,323,0.0,0.0,94,0.00,,---,0.19,VWS V14.00,2013-08-03 03:26:00,
2013-08-02 23:29:00,66.1,64.3,29.87,NW,323,0.0,0.0,94,0.00,,---,0.19,VWS V14.00,2013-08-03 03:29:00,
2013-08-02 23:31:00,66.1,64.3,29.87,NW,323,0.0,0.0,94,0.00,,---,0.19,VWS V14.00,2013-08-03 03:31:00,
2013-08-02 23:32:00,66.1,64.3,29.87,NW,323,0.0,0.0,94,0.00,,---,0.19,VWS V14.00,2013-08-03 03:32:00,
2013-08-02 23:34:00,66.1,64.3,29.87,NW,323,0.0,0.0,94,0.00,,---,0.19,VWS V14.00,2013-08-03 03:34:00,
2013-08-02 23:37:00,66.0,64.2,29.87,NW,323,0.0,0.0,94,0.00,,---,0.19,VWS V14.00,2013-08-03 03:37:00,
2013-08-02 23:39:00,66.0,64.2,29.87,NW,323,0.0,0.0,94,0.00,,---,0.19,VWS V14.00,2013-08-03 03:39:00,
2013-08-02 23:41:00,65.9,64.1,29.87,NW,323,0.0,0.0,94,0.00,,---,0.19,VWS V14.00,2013-08-03 03:41:00,
2013-08-02 23:42:00,65.9,64.1,29.87,NW,323,0.0,0.0,94,0.00,,---,0.19,VWS V14.00,2013-08-03 03:42:00,
2013-08-02 23:43:00,65.9,64.1,29.87,NW,323,0.0,0.0,94,0.00,,---,0.19,VWS V14.00,2013-08-03 03:43:00,
2013-08-02 23:44:00,65.9,64.1,29.87,NW,323,0.0,0.0,94,0.00,,---,0.19,VWS V14.00,2013-08-03 03:44:00,
2013-08-02 23:45:00,65.9,64.1,29.87,NW,323,0.0,0.0,94,0.00,,---,0.19,VWS V14.00,2013-08-03 03:45:00,
2013-08-02 23:47:00,65.9,64.1,29.86,NW,323,0.0,0.0,94,0.00,,---,0.19,VWS V14.00,2013-08-03 03:47:00,
2013-08-02 23:49:00,65.9,64.1,29.86,NW,323,0.0,0.0,94,0.00,,---,0.19,VWS V14.00,2013-08-03 03:49:00,
2013-08-02 23:50:00,65.8,64.0,29.86,NW,323,0.0,0.0,94,0.00,,---,0.19,VWS V14.00,2013-08-03 03:50:00,
2013-08-02 23:52:00,65.8,64.0,29.86,NW,323,0.0,0.0,94,0.00,,---,0.19,VWS V14.00,2013-08-03 03:52:00,
2013-08-02 23:53:00,65.8,64.3,29.87,NW,323,0.0,0.0,95,0.00,,---,0.19,VWS V14.00,2013-08-03 03:53:00,
2013-08-02 23:54:00,65.8,64.3,29.87,NW,323,0.0,0.0,95,0.00,,---,0.19,VWS V14.00,2013-08-03 03:54:00,
2013-08-02 23:56:00,65.8,64.3,29.87,NW,323,0.0,0.0,95,0.00,,---,0.19,VWS V14.00,2013-08-03 03:56:00,
2013-08-02 23:57:00,65.8,64.3,29.87,NW,323,0.0,0.0,95,0.00,,---,0.19,VWS V14.00,2013-08-03 03:57:00,
2013-08-02 23:58:00,65.8,64.3,29.87,NW,323,0.0,0.0,95,0.00,,---,0.19,VWS V14.00,2013-08-03 03:58:00,